Wetterdaten aus der Harmsstraße 54 in 24114 Kiel (4. OG, außen), die per BME280 und einem ESP-32 erhoben werden.
Unter https://wetter.janbpunkt.de/weather.xml steht eine entsprechende XML bereit, die das jüngste Messergebnis enthält.
Da der weatherino ab und zu ausfällt/gewartet wird, können Messpunkte fehlen.
Keine Garantie auf Korrektheit der Werte. Keine Haftung für direkte oder indirekte Schäden, die aus der Verwendung der Daten resultieren. Die Daten der Website werden per SSL verschlüsselt übertragen, es werden keine Cookies gesetzt und keine IP-Adressen geloggt. Weiterhin findet keine Verarbeitung von personenbezogenen Daten statt.
Mehr zu dem Projekt findet man hier.
Impressum| Zeitpunkt | Temperatur | Luftfeuchte | Luftdruck |
|---|---|---|---|
| 2026-09-02 07:03:35 | 19.18 ℃ | 100 % | 1017.67 hPa |
| Zeitpunkt | Temperatur | Luftfeuchte | Luftdruck |
|---|---|---|---|
| 2026-09-02 07:03:35 | 19.18 ℃ | 100 % | 1017.67 hPa |
| 2026-09-02 06:53:35 | 19.11 ℃ | 100 % | 1017.67 hPa |
| 2026-09-02 06:43:35 | 19.26 ℃ | 100 % | 1017.66 hPa |
| 2026-09-02 06:33:35 | 18.99 ℃ | 100 % | 1017.64 hPa |
| 2026-09-02 06:23:35 | 18.72 ℃ | 100 % | 1017.68 hPa |
| 2026-09-02 06:13:35 | 18.67 ℃ | 100 % | 1017.74 hPa |
| 2026-09-02 06:03:35 | 18.72 ℃ | 100 % | 1017.78 hPa |
| 2026-09-02 05:53:35 | 18.89 ℃ | 100 % | 1017.82 hPa |
| 2026-09-02 05:43:35 | 18.73 ℃ | 100 % | 1017.87 hPa |
| 2026-09-02 05:33:35 | 18.44 ℃ | 100 % | 1017.88 hPa |
| 2026-09-02 05:23:35 | 18.32 ℃ | 100 % | 1017.93 hPa |
| 2026-09-02 05:13:35 | 18.4 ℃ | 100 % | 1017.94 hPa |
| 2026-09-02 05:03:35 | 18.55 ℃ | 100 % | 1017.94 hPa |
| 2026-09-02 04:53:35 | 18.67 ℃ | 100 % | 1017.95 hPa |
| 2026-09-02 04:43:35 | 18.7 ℃ | 100 % | 1017.94 hPa |
| 2026-09-02 04:33:35 | 18.72 ℃ | 100 % | 1017.93 hPa |
| 2026-09-02 04:23:35 | 18.67 ℃ | 100 % | 1017.86 hPa |
| 2026-09-02 04:13:35 | 18.88 ℃ | 100 % | 1017.83 hPa |
| 2026-09-02 04:03:35 | 19.23 ℃ | 100 % | 1017.81 hPa |
| 2026-09-02 03:53:35 | 19.15 ℃ | 100 % | 1017.81 hPa |
| 2026-09-02 03:43:35 | 19.38 ℃ | 100 % | 1017.79 hPa |
| 2026-09-02 03:33:35 | 19.54 ℃ | 100 % | 1017.75 hPa |
| 2026-09-02 03:23:35 | 19.68 ℃ | 100 % | 1017.74 hPa |
| 2026-09-02 03:13:36 | 19.43 ℃ | 100 % | 1017.71 hPa |
| 2026-09-02 03:03:35 | 19.35 ℃ | 100 % | 1017.74 hPa |
| 2026-09-02 02:53:35 | 19.6 ℃ | 100 % | 1017.74 hPa |
| 2026-09-02 02:43:35 | 19.65 ℃ | 100 % | 1017.75 hPa |
| 2026-09-02 02:33:35 | 19.94 ℃ | 100 % | 1017.78 hPa |
| 2026-09-02 02:23:35 | 19.85 ℃ | 100 % | 1017.79 hPa |
| 2026-09-02 02:13:35 | 19.67 ℃ | 100 % | 1017.85 hPa |
| 2026-09-02 02:03:35 | 19.8 ℃ | 100 % | 1017.91 hPa |
| 2026-09-02 01:53:35 | 20.01 ℃ | 100 % | 1017.93 hPa |
| 2026-09-02 01:43:35 | 20.08 ℃ | 100 % | 1018.01 hPa |
| 2026-09-02 01:33:36 | 20.28 ℃ | 100 % | 1018.09 hPa |
| 2026-09-02 01:23:35 | 20.29 ℃ | 100 % | 1018.15 hPa |
| 2026-09-02 01:13:35 | 20.5 ℃ | 100 % | 1018.18 hPa |
| 2026-09-02 01:03:35 | 20.92 ℃ | 100 % | 1018.15 hPa |
| 2026-09-02 00:53:36 | 21.25 ℃ | 100 % | 1018.17 hPa |
| 2026-09-02 00:43:35 | 21.07 ℃ | 100 % | 1018.13 hPa |
| 2026-09-02 00:33:35 | 20.87 ℃ | 100 % | 1018.16 hPa |
| 2026-09-02 00:23:36 | 20.81 ℃ | 100 % | 1018.17 hPa |
| 2026-09-02 00:13:36 | 20.77 ℃ | 100 % | 1018.2 hPa |
| 2026-09-02 00:03:36 | 20.7 ℃ | 100 % | 1018.19 hPa |
| 2026-09-01 23:53:36 | 20.57 ℃ | 100 % | 1018.2 hPa |
| 2026-09-01 23:43:35 | 20.34 ℃ | 100 % | 1018.19 hPa |
| 2026-09-01 23:33:36 | 20.45 ℃ | 100 % | 1018.16 hPa |
| 2026-09-01 23:23:36 | 20.5 ℃ | 100 % | 1018.07 hPa |
| 2026-09-01 23:13:36 | 20.54 ℃ | 100 % | 1018 hPa |
| 2026-09-01 23:03:36 | 20.22 ℃ | 100 % | 1017.97 hPa |
| 2026-09-01 22:53:36 | 20.28 ℃ | 100 % | 1017.94 hPa |
| 2026-09-01 22:43:36 | 20.13 ℃ | 100 % | 1017.94 hPa |
| 2026-09-01 22:33:36 | 20.28 ℃ | 100 % | 1017.87 hPa |
| 2026-09-01 22:23:36 | 20.67 ℃ | 100 % | 1017.73 hPa |
| 2026-09-01 22:13:36 | 20.75 ℃ | 100 % | 1017.68 hPa |
| 2026-09-01 22:03:36 | 20.88 ℃ | 100 % | 1017.61 hPa |
| 2026-09-01 21:53:36 | 20.7 ℃ | 100 % | 1017.57 hPa |
| 2026-09-01 21:43:36 | 20.36 ℃ | 100 % | 1017.52 hPa |
| 2026-09-01 21:33:36 | 20.56 ℃ | 100 % | 1017.45 hPa |
| 2026-09-01 21:23:36 | 20.69 ℃ | 100 % | 1017.39 hPa |
| 2026-09-01 21:13:36 | 20.89 ℃ | 100 % | 1017.32 hPa |
| 2026-09-01 21:03:36 | 21.06 ℃ | 100 % | 1017.2 hPa |
| 2026-09-01 20:53:36 | 20.88 ℃ | 100 % | 1017.11 hPa |
| 2026-09-01 20:43:36 | 21.15 ℃ | 100 % | 1016.98 hPa |
| 2026-09-01 20:33:36 | 21.25 ℃ | 100 % | 1016.88 hPa |
| 2026-09-01 20:23:36 | 21.59 ℃ | 100 % | 1016.8 hPa |
| 2026-09-01 20:13:36 | 21.34 ℃ | 100 % | 1016.7 hPa |
| 2026-09-01 20:03:36 | 21.33 ℃ | 100 % | 1016.65 hPa |
| 2026-09-01 19:53:36 | 21.57 ℃ | 100 % | 1016.6 hPa |
| 2026-09-01 19:43:36 | 21.2 ℃ | 100 % | 1016.58 hPa |
| 2026-09-01 19:33:36 | 21.32 ℃ | 100 % | 1016.57 hPa |
| 2026-09-01 19:23:36 | 21.19 ℃ | 100 % | 1016.56 hPa |
| 2026-09-01 19:13:36 | 21.22 ℃ | 100 % | 1016.51 hPa |
| 2026-09-01 19:03:36 | 21.54 ℃ | 100 % | 1016.39 hPa |
| 2026-09-01 18:53:36 | 21.9 ℃ | 100 % | 1016.34 hPa |
| 2026-09-01 18:43:36 | 21.97 ℃ | 100 % | 1016.34 hPa |
| 2026-09-01 18:33:36 | 21.99 ℃ | 100 % | 1016.34 hPa |
| 2026-09-01 18:23:36 | 22.04 ℃ | 100 % | 1016.29 hPa |
| 2026-09-01 18:13:36 | 22.15 ℃ | 100 % | 1016.25 hPa |
| 2026-09-01 18:03:36 | 22.26 ℃ | 100 % | 1016.2 hPa |
| 2026-09-01 17:53:36 | 22.3 ℃ | 100 % | 1016.15 hPa |
| 2026-09-01 17:43:37 | 22.3 ℃ | 100 % | 1016.15 hPa |
| 2026-09-01 17:33:36 | 22.08 ℃ | 100 % | 1016.11 hPa |
| 2026-09-01 17:23:36 | 21.7 ℃ | 100 % | 1016.08 hPa |
| 2026-09-01 17:13:36 | 21.53 ℃ | 100 % | 1016.05 hPa |
| 2026-09-01 17:03:37 | 21.71 ℃ | 100 % | 1015.98 hPa |
| 2026-09-01 16:53:36 | 22.53 ℃ | 100 % | 1015.78 hPa |
| 2026-09-01 16:43:36 | 23.6 ℃ | 100 % | 1015.56 hPa |
| 2026-09-01 16:33:37 | 23.18 ℃ | 100 % | 1015.57 hPa |
| 2026-09-01 16:23:36 | 22.87 ℃ | 100 % | 1015.54 hPa |
| 2026-09-01 16:13:36 | 22.74 ℃ | 100 % | 1015.55 hPa |
| 2026-09-01 16:03:36 | 22.75 ℃ | 100 % | 1015.51 hPa |
| 2026-09-01 15:53:36 | 22.48 ℃ | 100 % | 1015.52 hPa |
| 2026-09-01 15:43:36 | 22 ℃ | 100 % | 1015.6 hPa |
| 2026-09-01 15:33:36 | 21.94 ℃ | 100 % | 1015.6 hPa |
| 2026-09-01 15:23:36 | 22.19 ℃ | 100 % | 1015.47 hPa |
| 2026-09-01 15:13:36 | 23.12 ℃ | 100 % | 1015.38 hPa |
| 2026-09-01 15:03:36 | 23.86 ℃ | 100 % | 1015.22 hPa |
| 2026-09-01 14:53:36 | 24.92 ℃ | 100 % | 1015.06 hPa |
| 2026-09-01 14:43:36 | 25.05 ℃ | 100 % | 1014.96 hPa |
| 2026-09-01 14:33:36 | 25.04 ℃ | 100 % | 1014.93 hPa |
| 2026-09-01 14:23:36 | 24.88 ℃ | 100 % | 1014.98 hPa |
| 2026-09-01 14:13:36 | 24.87 ℃ | 100 % | 1014.95 hPa |
| 2026-09-01 14:03:36 | 24.79 ℃ | 100 % | 1014.92 hPa |
| 2026-09-01 13:53:36 | 24.7 ℃ | 100 % | 1014.83 hPa |
| 2026-09-01 13:43:36 | 24.62 ℃ | 100 % | 1014.79 hPa |
| 2026-09-01 13:33:36 | 24.48 ℃ | 100 % | 1014.75 hPa |
| 2026-09-01 13:23:36 | 24.66 ℃ | 100 % | 1014.74 hPa |
| 2026-09-01 13:13:36 | 24.13 ℃ | 100 % | 1014.73 hPa |
| 2026-09-01 13:03:36 | 24.11 ℃ | 100 % | 1014.72 hPa |
| 2026-09-01 12:53:36 | 24.05 ℃ | 100 % | 1014.64 hPa |
| 2026-09-01 12:43:37 | 23.88 ℃ | 100 % | 1014.54 hPa |
| 2026-09-01 12:33:37 | 23.89 ℃ | 100 % | 1014.44 hPa |
| 2026-09-01 12:23:38 | 23.9 ℃ | 100 % | 1014.34 hPa |
| 2026-09-01 12:13:36 | 23.77 ℃ | 100 % | 1014.29 hPa |
| 2026-09-01 12:03:37 | 24.01 ℃ | 100 % | 1014.24 hPa |
| 2026-09-01 11:53:37 | 23.76 ℃ | 100 % | 1014.17 hPa |
| 2026-09-01 11:43:37 | 23.53 ℃ | 100 % | 1014.05 hPa |
| 2026-09-01 11:33:37 | 23.37 ℃ | 100 % | 1014.05 hPa |
| 2026-09-01 11:23:37 | 23.55 ℃ | 100 % | 1014.02 hPa |
| 2026-09-01 11:13:37 | 23.31 ℃ | 100 % | 1014.04 hPa |
| 2026-09-01 11:03:37 | 23.46 ℃ | 100 % | 1014.02 hPa |
| 2026-09-01 10:53:37 | 22.69 ℃ | 100 % | 1014.04 hPa |
| 2026-09-01 10:43:37 | 22.31 ℃ | 100 % | 1014.05 hPa |
| 2026-09-01 10:33:37 | 22.14 ℃ | 100 % | 1013.97 hPa |
| 2026-09-01 10:23:37 | 22.36 ℃ | 100 % | 1013.89 hPa |
| 2026-09-01 10:13:37 | 23.06 ℃ | 100 % | 1013.74 hPa |
| 2026-09-01 10:03:37 | 23.21 ℃ | 100 % | 1013.7 hPa |
| 2026-09-01 09:53:37 | 22.59 ℃ | 100 % | 1013.67 hPa |
| 2026-09-01 09:43:37 | 22.59 ℃ | 100 % | 1013.6 hPa |
| 2026-09-01 09:33:37 | 22.46 ℃ | 100 % | 1013.54 hPa |
| 2026-09-01 09:23:37 | 22.55 ℃ | 100 % | 1013.44 hPa |
| 2026-09-01 09:13:37 | 22.73 ℃ | 100 % | 1013.39 hPa |
| 2026-09-01 09:03:37 | 22.62 ℃ | 100 % | 1013.32 hPa |
| 2026-09-01 08:53:37 | 22.55 ℃ | 100 % | 1013.27 hPa |
| 2026-09-01 08:43:37 | 22.52 ℃ | 100 % | 1013.21 hPa |
| 2026-09-01 08:33:37 | 22.36 ℃ | 100 % | 1013.14 hPa |
| 2026-09-01 08:23:37 | 21.95 ℃ | 100 % | 1013.08 hPa |
| 2026-09-01 08:13:37 | 21.57 ℃ | 100 % | 1013.04 hPa |
| 2026-09-01 08:03:37 | 20.99 ℃ | 100 % | 1013.02 hPa |
| 2026-09-01 07:53:37 | 20.74 ℃ | 100 % | 1012.97 hPa |
| 2026-09-01 07:43:37 | 21.03 ℃ | 100 % | 1012.89 hPa |
| 2026-09-01 07:33:37 | 20.86 ℃ | 100 % | 1012.82 hPa |
| 2026-09-01 07:23:37 | 20.53 ℃ | 100 % | 1012.73 hPa |
| 2026-09-01 07:13:37 | 20.49 ℃ | 100 % | 1012.65 hPa |
| 2026-09-01 07:03:37 | 20.76 ℃ | 100 % | 1012.6 hPa |
| 2026-09-01 06:53:37 | 20.49 ℃ | 100 % | 1012.48 hPa |
| 2026-09-01 06:43:37 | 20.19 ℃ | 100 % | 1012.42 hPa |
| 2026-09-01 06:33:37 | 20.01 ℃ | 100 % | 1012.35 hPa |
| 2026-09-01 06:23:38 | 20.23 ℃ | 100 % | 1012.31 hPa |
| 2026-09-01 06:13:37 | 20.22 ℃ | 100 % | 1012.25 hPa |
| 2026-09-01 06:03:37 | 20.36 ℃ | 100 % | 1012.21 hPa |
| 2026-09-01 05:53:37 | 20.22 ℃ | 100 % | 1012.19 hPa |
| 2026-09-01 05:43:37 | 20.1 ℃ | 100 % | 1012.11 hPa |
| 2026-09-01 05:33:37 | 20.34 ℃ | 100 % | 1012.04 hPa |
| 2026-09-01 05:23:37 | 20.56 ℃ | 100 % | 1011.96 hPa |
| 2026-09-01 05:13:37 | 20.47 ℃ | 100 % | 1011.89 hPa |
| 2026-09-01 05:03:37 | 20.37 ℃ | 100 % | 1011.89 hPa |
| 2026-09-01 04:53:38 | 20.22 ℃ | 100 % | 1011.84 hPa |
| 2026-09-01 04:43:37 | 20.2 ℃ | 100 % | 1011.78 hPa |
| 2026-09-01 04:33:37 | 20.12 ℃ | 100 % | 1011.76 hPa |
| 2026-09-01 04:23:37 | 20.02 ℃ | 100 % | 1011.71 hPa |
| 2026-09-01 04:13:37 | 20.33 ℃ | 100 % | 1011.64 hPa |
| 2026-09-01 04:03:37 | 20.2 ℃ | 100 % | 1011.55 hPa |
| 2026-09-01 03:53:37 | 20.14 ℃ | 100 % | 1011.49 hPa |
| 2026-09-01 03:43:38 | 20.3 ℃ | 100 % | 1011.42 hPa |
| 2026-09-01 03:33:37 | 20.65 ℃ | 100 % | 1011.3 hPa |
| 2026-09-01 03:23:37 | 20.43 ℃ | 100 % | 1011.26 hPa |
| 2026-09-01 03:13:39 | 20.21 ℃ | 100 % | 1011.17 hPa |
| 2026-09-01 03:03:37 | 20.28 ℃ | 100 % | 1011.12 hPa |
| 2026-09-01 02:53:37 | 20.47 ℃ | 100 % | 1011.05 hPa |
| 2026-09-01 02:43:37 | 20.39 ℃ | 100 % | 1010.98 hPa |
| 2026-09-01 02:33:38 | 20.41 ℃ | 100 % | 1010.88 hPa |
| 2026-09-01 02:23:37 | 20.49 ℃ | 100 % | 1010.81 hPa |
| 2026-09-01 02:13:38 | 20.37 ℃ | 100 % | 1010.77 hPa |
| 2026-09-01 02:03:37 | 20.85 ℃ | 100 % | 1010.67 hPa |
| 2026-09-01 01:53:37 | 20.59 ℃ | 100 % | 1010.66 hPa |
| 2026-09-01 01:43:37 | 20.09 ℃ | 100 % | 1010.64 hPa |
| 2026-09-01 01:33:38 | 20.07 ℃ | 100 % | 1010.58 hPa |
| 2026-09-01 01:23:39 | 20.07 ℃ | 100 % | 1010.54 hPa |
| 2026-09-01 01:13:37 | 19.98 ℃ | 100 % | 1010.52 hPa |
| 2026-09-01 01:03:38 | 19.82 ℃ | 100 % | 1010.47 hPa |
| 2026-09-01 00:53:38 | 19.68 ℃ | 100 % | 1010.42 hPa |
| 2026-09-01 00:43:38 | 19.86 ℃ | 100 % | 1010.31 hPa |
| 2026-09-01 00:33:38 | 19.94 ℃ | 100 % | 1010.23 hPa |
| 2026-09-01 00:23:38 | 20.32 ℃ | 100 % | 1010.22 hPa |
| 2026-09-01 00:13:38 | 20.1 ℃ | 100 % | 1010.22 hPa |
| 2026-09-01 00:03:38 | 20.07 ℃ | 100 % | 1010.17 hPa |
| 2026-08-31 23:53:38 | 20.14 ℃ | 100 % | 1010.1 hPa |
| 2026-08-31 23:43:38 | 20.32 ℃ | 100 % | 1010.02 hPa |
| 2026-08-31 23:33:38 | 20.59 ℃ | 100 % | 1009.92 hPa |
| 2026-08-31 23:23:38 | 20.49 ℃ | 100 % | 1009.84 hPa |
| 2026-08-31 23:13:38 | 20.6 ℃ | 100 % | 1009.76 hPa |
| 2026-08-31 23:03:38 | 20.46 ℃ | 100 % | 1009.67 hPa |
| 2026-08-31 22:53:38 | 20.66 ℃ | 100 % | 1009.65 hPa |
| 2026-08-31 22:43:38 | 20.52 ℃ | 100 % | 1009.59 hPa |
| 2026-08-31 22:33:38 | 20.59 ℃ | 100 % | 1009.54 hPa |
| 2026-08-31 22:23:38 | 20.61 ℃ | 100 % | 1009.46 hPa |
| 2026-08-31 22:13:38 | 20.68 ℃ | 100 % | 1009.42 hPa |
| 2026-08-31 22:03:38 | 20.89 ℃ | 100 % | 1009.32 hPa |
| 2026-08-31 21:53:38 | 20.95 ℃ | 100 % | 1009.25 hPa |
| 2026-08-31 21:43:38 | 21.33 ℃ | 100 % | 1009.18 hPa |
| 2026-08-31 21:33:38 | 21.84 ℃ | 100 % | 1009.1 hPa |
| 2026-08-31 21:23:38 | 21.93 ℃ | 100 % | 1008.99 hPa |
| 2026-08-31 21:13:38 | 21.84 ℃ | 100 % | 1008.95 hPa |
| 2026-08-31 21:03:38 | 21.96 ℃ | 100 % | 1008.93 hPa |
| 2026-08-31 20:53:38 | 21.91 ℃ | 100 % | 1008.89 hPa |
| 2026-08-31 20:43:38 | 22.06 ℃ | 100 % | 1008.78 hPa |
| 2026-08-31 20:33:38 | 22.57 ℃ | 100 % | 1008.68 hPa |
| 2026-08-31 20:23:38 | 22.85 ℃ | 100 % | 1008.63 hPa |
| 2026-08-31 20:13:38 | 23.13 ℃ | 100 % | 1008.54 hPa |
| 2026-08-31 20:03:39 | 23.08 ℃ | 100 % | 1008.47 hPa |
| 2026-08-31 19:53:38 | 23.26 ℃ | 100 % | 1008.34 hPa |
| 2026-08-31 19:43:38 | 23.08 ℃ | 100 % | 1008.2 hPa |
| 2026-08-31 19:33:38 | 23.17 ℃ | 100 % | 1008.02 hPa |
| 2026-08-31 19:23:38 | 23.16 ℃ | 100 % | 1007.91 hPa |
| 2026-08-31 19:13:39 | 22.99 ℃ | 100 % | 1007.89 hPa |
| 2026-08-31 19:03:39 | 23.07 ℃ | 100 % | 1007.81 hPa |
| 2026-08-31 18:53:38 | 23.13 ℃ | 100 % | 1007.69 hPa |
| 2026-08-31 18:43:39 | 23.16 ℃ | 100 % | 1007.64 hPa |
| 2026-08-31 18:33:38 | 23.46 ℃ | 100 % | 1007.73 hPa |
| 2026-08-31 18:23:38 | 23.2 ℃ | 100 % | 1007.86 hPa |
| 2026-08-31 18:13:39 | 23.16 ℃ | 100 % | 1007.83 hPa |
| 2026-08-31 18:03:38 | 22.72 ℃ | 100 % | 1007.85 hPa |
| 2026-08-31 17:53:39 | 22.24 ℃ | 100 % | 1007.98 hPa |
| 2026-08-31 17:43:38 | 21.92 ℃ | 100 % | 1008.14 hPa |
| 2026-08-31 17:33:38 | 22.12 ℃ | 100 % | 1008.18 hPa |
| 2026-08-31 17:23:38 | 22.12 ℃ | 100 % | 1008.2 hPa |
| 2026-08-31 17:13:38 | 22.36 ℃ | 100 % | 1008.08 hPa |
| 2026-08-31 17:03:38 | 22.47 ℃ | 100 % | 1007.93 hPa |
| 2026-08-31 16:53:38 | 22.51 ℃ | 100 % | 1007.87 hPa |
| 2026-08-31 16:43:38 | 23.05 ℃ | 100 % | 1007.75 hPa |
| 2026-08-31 16:33:38 | 24.13 ℃ | 100 % | 1007.6 hPa |
| 2026-08-31 16:23:39 | 24.56 ℃ | 100 % | 1007.37 hPa |
| 2026-08-31 16:13:38 | 25.26 ℃ | 100 % | 1007.25 hPa |
| 2026-08-31 16:03:39 | 26.15 ℃ | 100 % | 1007.03 hPa |
| 2026-08-31 15:53:38 | 27.06 ℃ | 100 % | 1006.85 hPa |
| 2026-08-31 15:43:38 | 27.68 ℃ | 100 % | 1006.85 hPa |
| 2026-08-31 15:33:38 | 27.39 ℃ | 100 % | 1006.83 hPa |
| 2026-08-31 15:23:38 | 27.13 ℃ | 100 % | 1006.84 hPa |
| 2026-08-31 15:13:38 | 27.3 ℃ | 100 % | 1006.83 hPa |
| 2026-08-31 15:03:39 | 27.19 ℃ | 100 % | 1006.79 hPa |
| 2026-08-31 14:53:38 | 27.49 ℃ | 100 % | 1006.75 hPa |
| 2026-08-31 14:43:38 | 27.37 ℃ | 100 % | 1006.71 hPa |
| 2026-08-31 14:33:38 | 27.03 ℃ | 100 % | 1006.66 hPa |
| 2026-08-31 14:23:39 | 26.64 ℃ | 100 % | 1006.67 hPa |
| 2026-08-31 14:13:39 | 26.79 ℃ | 100 % | 1006.72 hPa |
| 2026-08-31 14:03:39 | 27.03 ℃ | 100 % | 1006.8 hPa |
| 2026-08-31 13:53:38 | 26.67 ℃ | 100 % | 1006.88 hPa |
| 2026-08-31 13:43:39 | 26.38 ℃ | 100 % | 1006.96 hPa |
| 2026-08-31 13:33:38 | 26.52 ℃ | 100 % | 1007.02 hPa |
| 2026-08-31 13:23:39 | 26.88 ℃ | 100 % | 1007.02 hPa |
| 2026-08-31 13:13:38 | 27.19 ℃ | 100 % | 1006.98 hPa |
| 2026-08-31 13:03:38 | 27.02 ℃ | 100 % | 1007.01 hPa |
| 2026-08-31 12:53:38 | 26.96 ℃ | 100 % | 1007.07 hPa |
| 2026-08-31 12:43:39 | 26.69 ℃ | 100 % | 1007.18 hPa |
| 2026-08-31 12:33:39 | 26.87 ℃ | 100 % | 1007.25 hPa |
| 2026-08-31 12:23:39 | 26.62 ℃ | 100 % | 1007.25 hPa |
| 2026-08-31 12:13:39 | 26.38 ℃ | 100 % | 1007.25 hPa |
| 2026-08-31 12:03:39 | 26.3 ℃ | 100 % | 1007.26 hPa |
| 2026-08-31 11:53:39 | 26.37 ℃ | 100 % | 1007.28 hPa |
| 2026-08-31 11:43:39 | 26.38 ℃ | 100 % | 1007.38 hPa |
| 2026-08-31 11:33:39 | 26.43 ℃ | 100 % | 1007.47 hPa |
| 2026-08-31 11:23:39 | 26.31 ℃ | 100 % | 1007.55 hPa |
| 2026-08-31 11:13:39 | 26.42 ℃ | 100 % | 1007.59 hPa |
| 2026-08-31 11:03:39 | 26.18 ℃ | 100 % | 1007.64 hPa |
| 2026-08-31 10:53:39 | 25.9 ℃ | 100 % | 1007.66 hPa |
| 2026-08-31 10:43:39 | 25.69 ℃ | 100 % | 1007.64 hPa |
| 2026-08-31 10:33:39 | 25.4 ℃ | 100 % | 1007.62 hPa |
| 2026-08-31 10:23:39 | 25.39 ℃ | 100 % | 1007.58 hPa |
| 2026-08-31 10:13:39 | 25.31 ℃ | 100 % | 1007.54 hPa |
| 2026-08-31 10:03:39 | 25.33 ℃ | 100 % | 1007.5 hPa |
| 2026-08-31 09:53:39 | 25.11 ℃ | 100 % | 1007.45 hPa |
| 2026-08-31 09:43:39 | 24.7 ℃ | 100 % | 1007.39 hPa |
| 2026-08-31 09:33:39 | 24.61 ℃ | 100 % | 1007.34 hPa |
| 2026-08-31 09:23:39 | 24.52 ℃ | 100 % | 1007.42 hPa |
| 2026-08-31 09:13:39 | 24.65 ℃ | 100 % | 1007.47 hPa |
| 2026-08-31 09:03:39 | 24.03 ℃ | 100 % | 1007.51 hPa |
| 2026-08-31 08:53:39 | 23.53 ℃ | 100 % | 1007.61 hPa |
| 2026-08-31 08:43:39 | 22.65 ℃ | 100 % | 1007.67 hPa |
| 2026-08-31 08:33:39 | 22.09 ℃ | 100 % | 1007.81 hPa |
| 2026-08-31 08:23:39 | 21.72 ℃ | 100 % | 1007.87 hPa |
| 2026-08-31 08:13:39 | 21.61 ℃ | 100 % | 1007.96 hPa |
| 2026-08-31 08:03:39 | 21.61 ℃ | 100 % | 1007.91 hPa |
| 2026-08-31 07:53:39 | 21.45 ℃ | 100 % | 1008.01 hPa |
| 2026-08-31 07:43:40 | 21.39 ℃ | 100 % | 1008.1 hPa |
| 2026-08-31 07:33:39 | 21.25 ℃ | 100 % | 1008.18 hPa |
| 2026-08-31 07:23:40 | 21.41 ℃ | 100 % | 1008.22 hPa |
| 2026-08-31 07:13:39 | 21.59 ℃ | 100 % | 1008.21 hPa |
| 2026-08-31 07:03:39 | 21.65 ℃ | 100 % | 1008.23 hPa |
| 2026-08-31 06:53:39 | 21.53 ℃ | 100 % | 1008.33 hPa |
| 2026-08-31 06:43:39 | 21.77 ℃ | 100 % | 1008.43 hPa |
| 2026-08-31 06:33:39 | 21.99 ℃ | 100 % | 1008.49 hPa |
| 2026-08-31 06:23:39 | 22.2 ℃ | 100 % | 1008.58 hPa |
| 2026-08-31 06:13:39 | 22.31 ℃ | 100 % | 1008.6 hPa |
| 2026-08-31 06:03:39 | 22.15 ℃ | 100 % | 1008.61 hPa |
| 2026-08-31 05:53:39 | 21.97 ℃ | 100 % | 1008.7 hPa |
| 2026-08-31 05:43:39 | 22.08 ℃ | 100 % | 1008.77 hPa |
| 2026-08-31 05:33:39 | 21.91 ℃ | 100 % | 1008.84 hPa |
| 2026-08-31 05:23:39 | 22.22 ℃ | 100 % | 1008.93 hPa |
| 2026-08-31 05:13:39 | 22.4 ℃ | 100 % | 1009.04 hPa |
| 2026-08-31 05:03:39 | 22.71 ℃ | 100 % | 1009.16 hPa |
| 2026-08-31 04:53:40 | 22.53 ℃ | 100 % | 1009.24 hPa |
| 2026-08-31 04:43:40 | 22.7 ℃ | 100 % | 1009.32 hPa |
| 2026-08-31 04:33:39 | 22.85 ℃ | 100 % | 1009.38 hPa |
| 2026-08-31 04:23:39 | 22.78 ℃ | 100 % | 1009.4 hPa |
| 2026-08-31 04:13:40 | 22.73 ℃ | 100 % | 1009.47 hPa |
| 2026-08-31 04:03:39 | 22.94 ℃ | 100 % | 1009.52 hPa |
| 2026-08-31 03:53:39 | 23.03 ℃ | 100 % | 1009.55 hPa |
| 2026-08-31 03:43:39 | 22.84 ℃ | 100 % | 1009.61 hPa |
| 2026-08-31 03:33:39 | 22.84 ℃ | 100 % | 1009.72 hPa |
| 2026-08-31 03:23:39 | 22.77 ℃ | 100 % | 1009.86 hPa |
| 2026-08-31 03:13:39 | 22.99 ℃ | 100 % | 1009.93 hPa |
| 2026-08-31 03:03:39 | 22.62 ℃ | 100 % | 1009.95 hPa |
| 2026-08-31 02:53:40 | 22.69 ℃ | 100 % | 1010 hPa |
| 2026-08-31 02:43:39 | 23.02 ℃ | 100 % | 1010.14 hPa |
| 2026-08-31 02:33:39 | 23.11 ℃ | 100 % | 1010.19 hPa |
| 2026-08-31 02:23:39 | 23.15 ℃ | 100 % | 1010.21 hPa |
| 2026-08-31 02:13:39 | 23.04 ℃ | 100 % | 1010.25 hPa |
| 2026-08-31 02:03:39 | 23.15 ℃ | 100 % | 1010.23 hPa |
| 2026-08-31 01:53:39 | 23.02 ℃ | 100 % | 1010.23 hPa |
| 2026-08-31 01:43:41 | 22.81 ℃ | 100 % | 1010.26 hPa |
| 2026-08-31 01:33:39 | 22.98 ℃ | 100 % | 1010.29 hPa |
| 2026-08-31 01:23:40 | 22.94 ℃ | 100 % | 1010.32 hPa |
| 2026-08-31 01:13:40 | 22.97 ℃ | 100 % | 1010.35 hPa |
| 2026-08-31 01:03:40 | 22.53 ℃ | 100 % | 1010.38 hPa |
| 2026-08-31 00:53:39 | 22.68 ℃ | 100 % | 1010.49 hPa |
| 2026-08-31 00:43:40 | 22.86 ℃ | 100 % | 1010.62 hPa |
| 2026-08-31 00:33:39 | 23.31 ℃ | 100 % | 1010.64 hPa |
| 2026-08-31 00:23:39 | 23.36 ℃ | 100 % | 1010.66 hPa |
| 2026-08-31 00:13:40 | 23.65 ℃ | 100 % | 1010.7 hPa |
| 2026-08-31 00:03:40 | 23.5 ℃ | 100 % | 1010.77 hPa |
| 2026-08-30 23:53:40 | 23.48 ℃ | 100 % | 1010.79 hPa |
| 2026-08-30 23:43:40 | 23.14 ℃ | 100 % | 1010.78 hPa |
| 2026-08-30 23:33:40 | 23.04 ℃ | 100 % | 1010.79 hPa |
| 2026-08-30 23:23:40 | 23.2 ℃ | 100 % | 1010.75 hPa |
| 2026-08-30 23:13:40 | 23.32 ℃ | 100 % | 1010.71 hPa |
| 2026-08-30 23:03:40 | 23.17 ℃ | 100 % | 1010.75 hPa |
| 2026-08-30 22:53:40 | 23.3 ℃ | 100 % | 1010.8 hPa |
| 2026-08-30 22:43:40 | 23.25 ℃ | 100 % | 1010.82 hPa |
| 2026-08-30 22:33:40 | 23.42 ℃ | 100 % | 1010.8 hPa |
| 2026-08-30 22:23:40 | 23.54 ℃ | 100 % | 1010.8 hPa |
| 2026-08-30 22:13:40 | 23.4 ℃ | 100 % | 1010.83 hPa |
| 2026-08-30 22:03:40 | 23.39 ℃ | 100 % | 1010.86 hPa |
| 2026-08-30 21:53:40 | 23.67 ℃ | 100 % | 1010.82 hPa |
| 2026-08-30 21:43:40 | 23.63 ℃ | 100 % | 1010.77 hPa |
| 2026-08-30 21:33:40 | 23.64 ℃ | 100 % | 1010.7 hPa |
| 2026-08-30 21:23:40 | 23.41 ℃ | 100 % | 1010.66 hPa |
| 2026-08-30 21:13:40 | 23.36 ℃ | 100 % | 1010.6 hPa |
| 2026-08-30 21:03:40 | 23.46 ℃ | 100 % | 1010.53 hPa |
| 2026-08-30 20:53:40 | 23.72 ℃ | 100 % | 1010.45 hPa |
| 2026-08-30 20:43:40 | 23.57 ℃ | 100 % | 1010.33 hPa |
| 2026-08-30 20:33:40 | 23.24 ℃ | 100 % | 1010.23 hPa |
| 2026-08-30 20:23:40 | 23.49 ℃ | 100 % | 1010.17 hPa |
| 2026-08-30 20:13:40 | 23.92 ℃ | 100 % | 1010.09 hPa |
| 2026-08-30 20:03:40 | 23.65 ℃ | 100 % | 1009.98 hPa |
| 2026-08-30 19:53:40 | 23.77 ℃ | 100 % | 1009.83 hPa |
| 2026-08-30 19:43:40 | 23.82 ℃ | 100 % | 1009.72 hPa |
| 2026-08-30 19:33:40 | 23.73 ℃ | 100 % | 1009.65 hPa |
| 2026-08-30 19:23:40 | 23.66 ℃ | 100 % | 1009.62 hPa |
| 2026-08-30 19:13:41 | 23.66 ℃ | 100 % | 1009.54 hPa |
| 2026-08-30 19:03:40 | 23.88 ℃ | 100 % | 1009.48 hPa |
| 2026-08-30 18:53:40 | 23.76 ℃ | 100 % | 1009.41 hPa |
| 2026-08-30 18:43:40 | 23.64 ℃ | 100 % | 1009.27 hPa |
| 2026-08-30 18:33:40 | 23.85 ℃ | 100 % | 1009.13 hPa |
| 2026-08-30 18:23:40 | 24.04 ℃ | 100 % | 1009.01 hPa |
| 2026-08-30 18:13:40 | 24.06 ℃ | 100 % | 1008.91 hPa |
| 2026-08-30 18:03:40 | 24.02 ℃ | 100 % | 1008.77 hPa |
| 2026-08-30 17:53:40 | 24.35 ℃ | 100 % | 1008.68 hPa |
| 2026-08-30 17:43:40 | 24.62 ℃ | 100 % | 1008.57 hPa |
| 2026-08-30 17:33:40 | 24.74 ℃ | 100 % | 1008.51 hPa |
| 2026-08-30 17:23:40 | 24.73 ℃ | 100 % | 1008.49 hPa |
| 2026-08-30 17:13:40 | 24.69 ℃ | 100 % | 1008.4 hPa |
| 2026-08-30 17:03:40 | 24.69 ℃ | 100 % | 1008.29 hPa |
| 2026-08-30 16:53:40 | 24.63 ℃ | 100 % | 1008.12 hPa |
| 2026-08-30 16:43:40 | 24.85 ℃ | 100 % | 1007.93 hPa |
| 2026-08-30 16:33:40 | 24.31 ℃ | 100 % | 1007.78 hPa |
| 2026-08-30 16:23:40 | 24.38 ℃ | 100 % | 1007.58 hPa |
| 2026-08-30 16:13:40 | 24.17 ℃ | 100 % | 1007.42 hPa |
| 2026-08-30 16:03:40 | 24.44 ℃ | 100 % | 1007.29 hPa |
| 2026-08-30 15:53:40 | 24.31 ℃ | 100 % | 1007.16 hPa |
| 2026-08-30 15:43:40 | 24.04 ℃ | 100 % | 1007 hPa |
| 2026-08-30 15:33:40 | 24.38 ℃ | 100 % | 1006.77 hPa |
| 2026-08-30 15:23:41 | 24.66 ℃ | 100 % | 1006.52 hPa |
| 2026-08-30 15:13:40 | 25.22 ℃ | 100 % | 1006.22 hPa |
| 2026-08-30 15:03:41 | 25.48 ℃ | 100 % | 1006.03 hPa |
| 2026-08-30 14:53:40 | 25.37 ℃ | 100 % | 1005.99 hPa |
| 2026-08-30 14:43:41 | 25.12 ℃ | 100 % | 1005.93 hPa |
| 2026-08-30 14:33:40 | 24.51 ℃ | 100 % | 1005.88 hPa |
| 2026-08-30 14:23:41 | 24.03 ℃ | 100 % | 1005.78 hPa |
| 2026-08-30 14:13:40 | 23.79 ℃ | 100 % | 1005.66 hPa |
| 2026-08-30 14:03:40 | 24.03 ℃ | 100 % | 1005.52 hPa |
| 2026-08-30 13:53:40 | 24.17 ℃ | 100 % | 1005.45 hPa |
| 2026-08-30 13:43:41 | 24.02 ℃ | 100 % | 1005.4 hPa |
| 2026-08-30 13:33:41 | 23.55 ℃ | 100 % | 1005.31 hPa |
| 2026-08-30 13:23:40 | 23.42 ℃ | 100 % | 1005.21 hPa |
| 2026-08-30 13:13:41 | 23.32 ℃ | 100 % | 1005.11 hPa |
| 2026-08-30 13:03:41 | 23.35 ℃ | 100 % | 1005.05 hPa |
| 2026-08-30 12:53:41 | 23.47 ℃ | 100 % | 1004.93 hPa |
| 2026-08-30 12:43:41 | 23.42 ℃ | 100 % | 1004.88 hPa |
| 2026-08-30 11:43:41 | 22.78 ℃ | 100 % | 1004.52 hPa |
| 2026-08-30 11:33:41 | 22.5 ℃ | 100 % | 1004.46 hPa |
| 2026-08-30 11:23:41 | 22.47 ℃ | 100 % | 1004.36 hPa |
| 2026-08-30 11:13:41 | 22.3 ℃ | 100 % | 1004.26 hPa |
| 2026-08-30 11:03:41 | 22.24 ℃ | 100 % | 1004.15 hPa |
| 2026-08-30 10:53:41 | 22.27 ℃ | 100 % | 1004.03 hPa |
| 2026-08-30 10:43:41 | 22.46 ℃ | 100 % | 1003.96 hPa |
| 2026-08-30 10:33:41 | 21.94 ℃ | 100 % | 1003.91 hPa |
| 2026-08-30 10:23:41 | 21.98 ℃ | 100 % | 1003.9 hPa |
| 2026-08-30 10:13:41 | 21.75 ℃ | 100 % | 1003.86 hPa |
| 2026-08-30 10:03:41 | 21.65 ℃ | 100 % | 1003.84 hPa |
| 2026-08-30 09:53:41 | 21.69 ℃ | 100 % | 1003.75 hPa |
| 2026-08-30 09:43:41 | 21.74 ℃ | 100 % | 1003.66 hPa |
| 2026-08-30 09:33:41 | 21.73 ℃ | 100 % | 1003.6 hPa |
| 2026-08-30 09:23:41 | 21.73 ℃ | 100 % | 1003.51 hPa |
| 2026-08-30 09:13:41 | 21.56 ℃ | 100 % | 1003.46 hPa |
| 2026-08-30 09:03:41 | 21.56 ℃ | 100 % | 1003.41 hPa |
| 2026-08-30 08:53:41 | 21.6 ℃ | 100 % | 1003.36 hPa |
| 2026-08-30 08:43:41 | 21.49 ℃ | 100 % | 1003.3 hPa |
| 2026-08-30 08:33:41 | 21.78 ℃ | 100 % | 1003.25 hPa |
| 2026-08-30 08:23:41 | 21.83 ℃ | 100 % | 1003.21 hPa |
| 2026-08-30 08:13:41 | 21.95 ℃ | 100 % | 1003.2 hPa |
| 2026-08-30 08:03:41 | 21.88 ℃ | 100 % | 1003.2 hPa |
| 2026-08-30 07:53:41 | 21.93 ℃ | 100 % | 1003.21 hPa |
| 2026-08-30 07:43:41 | 21.91 ℃ | 100 % | 1003.23 hPa |
| 2026-08-30 07:33:41 | 21.78 ℃ | 100 % | 1003.25 hPa |
| 2026-08-30 07:23:41 | 21.7 ℃ | 100 % | 1003.33 hPa |
| 2026-08-30 07:13:41 | 21.46 ℃ | 100 % | 1003.39 hPa |
| 2026-08-30 07:03:41 | 21.38 ℃ | 100 % | 1003.47 hPa |
| 2026-08-30 06:53:41 | 21.6 ℃ | 100 % | 1003.54 hPa |
| 2026-08-30 06:43:41 | 21.65 ℃ | 100 % | 1003.56 hPa |
| 2026-08-30 06:33:41 | 21.69 ℃ | 100 % | 1003.65 hPa |
| 2026-08-30 06:23:41 | 21.53 ℃ | 100 % | 1003.71 hPa |
| 2026-08-30 06:13:41 | 21.33 ℃ | 100 % | 1003.81 hPa |
| 2026-08-30 06:03:41 | 21.22 ℃ | 100 % | 1003.93 hPa |
| 2026-08-30 05:53:41 | 21.09 ℃ | 100 % | 1004.03 hPa |
| 2026-08-30 05:43:41 | 21.06 ℃ | 100 % | 1004.08 hPa |
| 2026-08-30 05:33:41 | 21.24 ℃ | 100 % | 1004.21 hPa |
| 2026-08-30 05:23:41 | 21.21 ℃ | 100 % | 1004.34 hPa |
| 2026-08-30 05:13:41 | 21.19 ℃ | 100 % | 1004.48 hPa |
| 2026-08-30 05:03:41 | 21.09 ℃ | 100 % | 1004.64 hPa |
| 2026-08-30 04:53:41 | 21.35 ℃ | 100 % | 1004.72 hPa |
| 2026-08-30 04:43:41 | 21.26 ℃ | 100 % | 1004.85 hPa |
| 2026-08-30 04:33:42 | 21.16 ℃ | 100 % | 1004.93 hPa |
| 2026-08-30 04:23:41 | 21.11 ℃ | 100 % | 1005 hPa |
| 2026-08-30 04:13:41 | 21.01 ℃ | 100 % | 1005.12 hPa |
| 2026-08-30 04:03:41 | 21.01 ℃ | 100 % | 1005.22 hPa |
| 2026-08-30 03:53:41 | 20.98 ℃ | 100 % | 1005.33 hPa |
| 2026-08-30 03:43:41 | 20.98 ℃ | 100 % | 1005.46 hPa |
| 2026-08-30 03:33:41 | 21.01 ℃ | 100 % | 1005.58 hPa |
| 2026-08-30 03:23:41 | 20.79 ℃ | 100 % | 1005.7 hPa |
| 2026-08-30 03:13:41 | 20.85 ℃ | 100 % | 1005.84 hPa |
| 2026-08-30 03:03:41 | 20.98 ℃ | 100 % | 1005.97 hPa |
| 2026-08-30 02:53:41 | 20.93 ℃ | 100 % | 1006.11 hPa |
| 2026-08-30 02:43:41 | 20.94 ℃ | 100 % | 1006.19 hPa |
| 2026-08-30 02:33:42 | 21.15 ℃ | 100 % | 1006.25 hPa |
| 2026-08-30 02:23:41 | 21.3 ℃ | 100 % | 1006.3 hPa |
| 2026-08-30 02:13:41 | 21.49 ℃ | 100 % | 1006.36 hPa |
| 2026-08-30 02:03:41 | 21.5 ℃ | 100 % | 1006.43 hPa |
| 2026-08-30 01:53:41 | 21.57 ℃ | 100 % | 1006.55 hPa |
| 2026-08-30 01:43:41 | 21.5 ℃ | 100 % | 1006.75 hPa |
| 2026-08-30 01:33:41 | 21.65 ℃ | 100 % | 1006.87 hPa |
| 2026-08-30 01:23:41 | 21.68 ℃ | 100 % | 1007.01 hPa |
| 2026-08-30 01:13:41 | 21.68 ℃ | 100 % | 1007.06 hPa |
| 2026-08-30 01:03:42 | 21.8 ℃ | 100 % | 1007.15 hPa |
| 2026-08-30 00:53:42 | 22 ℃ | 100 % | 1007.27 hPa |
| 2026-08-30 00:43:42 | 22.07 ℃ | 100 % | 1007.39 hPa |
| 2026-08-30 00:33:42 | 22.42 ℃ | 100 % | 1007.5 hPa |
| 2026-08-30 00:23:42 | 22.42 ℃ | 100 % | 1007.64 hPa |
| 2026-08-30 00:13:42 | 22.63 ℃ | 100 % | 1007.81 hPa |
| 2026-08-30 00:03:42 | 23.17 ℃ | 100 % | 1008 hPa |
| 2026-08-29 23:53:42 | 23.52 ℃ | 100 % | 1008.11 hPa |
| 2026-08-29 23:43:42 | 23.52 ℃ | 100 % | 1008.25 hPa |
| 2026-08-29 23:33:42 | 23.5 ℃ | 100 % | 1008.4 hPa |
| 2026-08-29 23:23:42 | 23.31 ℃ | 100 % | 1008.55 hPa |
| 2026-08-29 23:13:42 | 23.19 ℃ | 100 % | 1008.6 hPa |
| 2026-08-29 23:03:42 | 23.17 ℃ | 100 % | 1008.53 hPa |
| 2026-08-29 22:53:42 | 23.47 ℃ | 100 % | 1008.3 hPa |
| 2026-08-29 22:43:42 | 23.68 ℃ | 100 % | 1008.15 hPa |
| 2026-08-29 22:33:42 | 23.98 ℃ | 100 % | 1008.2 hPa |
| 2026-08-29 22:23:42 | 23.89 ℃ | 100 % | 1008.26 hPa |
| 2026-08-29 22:13:42 | 24.29 ℃ | 100 % | 1008.4 hPa |
| 2026-08-29 22:03:42 | 24.31 ℃ | 100 % | 1008.54 hPa |
| 2026-08-29 21:53:42 | 23.95 ℃ | 100 % | 1008.66 hPa |
| 2026-08-29 21:43:42 | 23.75 ℃ | 100 % | 1008.74 hPa |
| 2026-08-29 21:33:42 | 23.6 ℃ | 100 % | 1008.73 hPa |
| 2026-08-29 21:23:42 | 23.91 ℃ | 100 % | 1008.66 hPa |
| 2026-08-29 21:13:42 | 23.9 ℃ | 100 % | 1008.62 hPa |
| 2026-08-29 21:03:42 | 24.05 ℃ | 100 % | 1008.56 hPa |
| 2026-08-29 20:53:42 | 24.17 ℃ | 100 % | 1008.52 hPa |
| 2026-08-29 20:43:42 | 24.11 ℃ | 100 % | 1008.48 hPa |
| 2026-08-29 20:33:42 | 24.01 ℃ | 100 % | 1008.47 hPa |
| 2026-08-29 20:23:42 | 23.85 ℃ | 100 % | 1008.43 hPa |
| 2026-08-29 20:13:42 | 23.92 ℃ | 100 % | 1008.45 hPa |
| 2026-08-29 20:03:42 | 23.97 ℃ | 100 % | 1008.45 hPa |
| 2026-08-29 19:53:42 | 23.77 ℃ | 100 % | 1008.48 hPa |
| 2026-08-29 19:43:42 | 23.79 ℃ | 100 % | 1008.46 hPa |
| 2026-08-29 19:33:42 | 23.68 ℃ | 100 % | 1008.5 hPa |
| 2026-08-29 19:23:42 | 23.86 ℃ | 100 % | 1008.51 hPa |
| 2026-08-29 19:13:42 | 23.82 ℃ | 100 % | 1008.57 hPa |
| 2026-08-29 19:03:42 | 23.66 ℃ | 100 % | 1008.58 hPa |
| 2026-08-29 18:53:42 | 23.62 ℃ | 100 % | 1008.63 hPa |
| 2026-08-29 18:43:42 | 23.59 ℃ | 100 % | 1008.67 hPa |
| 2026-08-29 18:33:42 | 23.81 ℃ | 100 % | 1008.64 hPa |
| 2026-08-29 18:23:42 | 24.01 ℃ | 100 % | 1008.64 hPa |
| 2026-08-29 18:13:42 | 24.35 ℃ | 100 % | 1008.58 hPa |
| 2026-08-29 18:03:42 | 24.7 ℃ | 100 % | 1008.49 hPa |
| 2026-08-29 17:53:42 | 25.18 ℃ | 100 % | 1008.4 hPa |
| 2026-08-29 17:43:42 | 25.22 ℃ | 100 % | 1008.39 hPa |
| 2026-08-29 17:33:42 | 25.48 ℃ | 100 % | 1008.39 hPa |
| 2026-08-29 17:23:42 | 25.67 ℃ | 100 % | 1008.36 hPa |
| 2026-08-29 17:13:42 | 25.64 ℃ | 100 % | 1008.34 hPa |
| 2026-08-29 17:03:42 | 25.8 ℃ | 100 % | 1008.34 hPa |
| 2026-08-29 16:53:42 | 25.71 ℃ | 100 % | 1008.32 hPa |
| 2026-08-29 16:43:42 | 25.99 ℃ | 100 % | 1008.28 hPa |
| 2026-08-29 16:33:42 | 26.2 ℃ | 100 % | 1008.28 hPa |
| 2026-08-29 16:23:42 | 25.9 ℃ | 100 % | 1008.3 hPa |
| 2026-08-29 16:13:42 | 25.52 ℃ | 100 % | 1008.31 hPa |
| 2026-08-29 16:03:42 | 25.77 ℃ | 100 % | 1008.24 hPa |
| 2026-08-29 15:53:42 | 25.68 ℃ | 100 % | 1008.23 hPa |
| 2026-08-29 15:43:42 | 25.53 ℃ | 100 % | 1008.22 hPa |
| 2026-08-29 15:33:42 | 25.34 ℃ | 100 % | 1008.15 hPa |
| 2026-08-29 15:23:42 | 25.1 ℃ | 100 % | 1008.12 hPa |
| 2026-08-29 15:13:43 | 24.71 ℃ | 100 % | 1008.11 hPa |
| 2026-08-29 15:03:42 | 24.5 ℃ | 100 % | 1008.14 hPa |
| 2026-08-29 14:53:42 | 24.5 ℃ | 100 % | 1008.14 hPa |
| 2026-08-29 14:43:42 | 24.76 ℃ | 100 % | 1008.06 hPa |
| 2026-08-29 14:33:42 | 24.86 ℃ | 100 % | 1008.04 hPa |
| 2026-08-29 14:23:42 | 24.44 ℃ | 100 % | 1008.04 hPa |
| 2026-08-29 14:13:42 | 24.62 ℃ | 100 % | 1008.06 hPa |
| 2026-08-29 14:03:43 | 24.06 ℃ | 100 % | 1008.08 hPa |
| 2026-08-29 13:53:42 | 24.08 ℃ | 100 % | 1008.06 hPa |
| 2026-08-29 13:43:42 | 23.92 ℃ | 100 % | 1008.03 hPa |
| 2026-08-29 13:33:43 | 23.69 ℃ | 100 % | 1007.98 hPa |
| 2026-08-29 13:23:42 | 23.43 ℃ | 100 % | 1007.99 hPa |
| 2026-08-29 13:13:42 | 23.27 ℃ | 100 % | 1007.96 hPa |
| 2026-08-29 13:03:42 | 23.11 ℃ | 100 % | 1007.98 hPa |
| 2026-08-29 12:53:43 | 22.69 ℃ | 100 % | 1008.01 hPa |
| 2026-08-29 12:43:43 | 22.61 ℃ | 100 % | 1008.01 hPa |
| 2026-08-29 12:33:42 | 22.67 ℃ | 100 % | 1007.87 hPa |
| 2026-08-29 12:23:43 | 22.56 ℃ | 100 % | 1007.83 hPa |
| 2026-08-29 12:13:44 | 21.86 ℃ | 100 % | 1007.81 hPa |
| 2026-08-29 12:03:43 | 21.99 ℃ | 100 % | 1007.77 hPa |
| 2026-08-29 11:53:43 | 21.92 ℃ | 100 % | 1007.66 hPa |
| 2026-08-29 11:43:43 | 22.15 ℃ | 100 % | 1007.62 hPa |
| 2026-08-29 11:33:43 | 22.24 ℃ | 100 % | 1007.48 hPa |
| 2026-08-29 11:23:43 | 22.31 ℃ | 100 % | 1007.41 hPa |
| 2026-08-29 11:13:43 | 21.96 ℃ | 100 % | 1007.35 hPa |
| 2026-08-29 11:03:43 | 21.93 ℃ | 100 % | 1007.27 hPa |
| 2026-08-29 10:53:43 | 22.09 ℃ | 100 % | 1007.15 hPa |
| 2026-08-29 10:43:43 | 22.04 ℃ | 100 % | 1007.21 hPa |
| 2026-08-29 10:33:43 | 21.81 ℃ | 100 % | 1007.29 hPa |
| 2026-08-29 10:23:43 | 21.94 ℃ | 100 % | 1007.26 hPa |
| 2026-08-29 10:13:43 | 21.67 ℃ | 100 % | 1007.3 hPa |
| 2026-08-29 10:03:43 | 21.45 ℃ | 100 % | 1007.29 hPa |
| 2026-08-29 09:53:43 | 21.49 ℃ | 100 % | 1007.31 hPa |
| 2026-08-29 09:43:43 | 21.54 ℃ | 100 % | 1007.32 hPa |
| 2026-08-29 09:33:43 | 21.31 ℃ | 100 % | 1007.28 hPa |
| 2026-08-29 09:23:43 | 21.4 ℃ | 100 % | 1007.25 hPa |
| 2026-08-29 09:13:43 | 21.15 ℃ | 100 % | 1007.2 hPa |
| 2026-08-29 09:03:43 | 20.94 ℃ | 100 % | 1007.22 hPa |
| 2026-08-29 08:53:44 | 20.51 ℃ | 100 % | 1007.23 hPa |
| 2026-08-29 08:43:43 | 20.54 ℃ | 100 % | 1007.18 hPa |
| 2026-08-29 08:33:43 | 20.72 ℃ | 100 % | 1007.19 hPa |
| 2026-08-29 08:23:43 | 20.82 ℃ | 100 % | 1007.17 hPa |
| 2026-08-29 08:13:43 | 21.12 ℃ | 100 % | 1007.12 hPa |
| 2026-08-29 08:03:43 | 20.56 ℃ | 100 % | 1007.1 hPa |
| 2026-08-29 07:53:43 | 20.66 ℃ | 100 % | 1007.07 hPa |
| 2026-08-29 07:43:43 | 20.76 ℃ | 100 % | 1007.03 hPa |
| 2026-08-29 07:33:43 | 20.98 ℃ | 100 % | 1007.04 hPa |
| 2026-08-29 07:23:43 | 20.83 ℃ | 100 % | 1007.01 hPa |
| 2026-08-29 07:13:44 | 20.82 ℃ | 100 % | 1006.93 hPa |
| 2026-08-29 07:03:43 | 20.88 ℃ | 100 % | 1006.84 hPa |
| 2026-08-29 06:53:43 | 20.82 ℃ | 100 % | 1006.82 hPa |
| 2026-08-29 06:43:43 | 20.96 ℃ | 100 % | 1006.83 hPa |
| 2026-08-29 06:33:43 | 20.51 ℃ | 100 % | 1006.78 hPa |
| 2026-08-29 06:23:44 | 20.62 ℃ | 100 % | 1006.77 hPa |
| 2026-08-29 06:13:43 | 20.63 ℃ | 100 % | 1006.72 hPa |
| 2026-08-29 06:03:43 | 20.79 ℃ | 100 % | 1006.7 hPa |
| 2026-08-29 05:53:43 | 20.83 ℃ | 100 % | 1006.7 hPa |
| 2026-08-29 05:43:43 | 20.8 ℃ | 100 % | 1006.73 hPa |
| 2026-08-29 05:33:43 | 20.78 ℃ | 100 % | 1006.93 hPa |
| 2026-08-29 05:23:43 | 20.77 ℃ | 100 % | 1006.95 hPa |
| 2026-08-29 05:13:43 | 20.62 ℃ | 100 % | 1006.97 hPa |
| 2026-08-29 05:03:43 | 20.67 ℃ | 100 % | 1007.04 hPa |
| 2026-08-29 04:53:43 | 20.96 ℃ | 100 % | 1007.03 hPa |
| 2026-08-29 04:43:43 | 20.91 ℃ | 100 % | 1007.15 hPa |
| 2026-08-29 04:33:43 | 20.83 ℃ | 100 % | 1007.3 hPa |
| 2026-08-29 04:23:44 | 20.88 ℃ | 100 % | 1007.41 hPa |
| 2026-08-29 04:13:43 | 21.01 ℃ | 100 % | 1007.36 hPa |
| 2026-08-29 04:03:43 | 21.12 ℃ | 100 % | 1007.32 hPa |
| 2026-08-29 03:53:44 | 20.97 ℃ | 100 % | 1007.32 hPa |
| 2026-08-29 03:43:44 | 20.91 ℃ | 100 % | 1007.26 hPa |
| 2026-08-29 03:33:43 | 20.94 ℃ | 100 % | 1007.28 hPa |
| 2026-08-29 03:23:43 | 20.93 ℃ | 100 % | 1007.3 hPa |
| 2026-08-29 03:13:43 | 21.13 ℃ | 100 % | 1007.35 hPa |
| 2026-08-29 03:03:43 | 21.1 ℃ | 100 % | 1007.37 hPa |
| 2026-08-29 02:53:43 | 20.91 ℃ | 100 % | 1007.35 hPa |
| 2026-08-29 02:43:43 | 20.76 ℃ | 100 % | 1007.25 hPa |
| 2026-08-29 02:33:43 | 20.74 ℃ | 100 % | 1007.16 hPa |
| 2026-08-29 02:23:43 | 20.87 ℃ | 100 % | 1007.11 hPa |
| 2026-08-29 02:13:43 | 21.22 ℃ | 100 % | 1007.11 hPa |
| 2026-08-29 02:03:45 | 21.28 ℃ | 100 % | 1007.17 hPa |
| 2026-08-29 01:53:44 | 21.36 ℃ | 100 % | 1007.29 hPa |
| 2026-08-29 01:43:44 | 21.42 ℃ | 100 % | 1007.39 hPa |
| 2026-08-29 01:33:43 | 21.56 ℃ | 100 % | 1007.3 hPa |
| 2026-08-29 01:23:44 | 21.47 ℃ | 100 % | 1007.2 hPa |
| 2026-08-29 01:13:43 | 21.55 ℃ | 100 % | 1007.18 hPa |
| 2026-08-29 01:03:44 | 21.35 ℃ | 100 % | 1007.02 hPa |
| 2026-08-29 00:53:44 | 21.3 ℃ | 100 % | 1007.07 hPa |
| 2026-08-29 00:43:43 | 21.52 ℃ | 100 % | 1007.31 hPa |
| 2026-08-29 00:33:44 | 21.57 ℃ | 100 % | 1007.31 hPa |
| 2026-08-29 00:23:44 | 21.76 ℃ | 100 % | 1007.34 hPa |
| 2026-08-29 00:13:44 | 22.05 ℃ | 100 % | 1007.34 hPa |
| 2026-08-29 00:03:44 | 22.11 ℃ | 100 % | 1007.29 hPa |
| 2026-08-28 23:53:44 | 22.22 ℃ | 100 % | 1007.19 hPa |
| 2026-08-28 23:43:44 | 22.21 ℃ | 100 % | 1007.17 hPa |
| 2026-08-28 23:33:44 | 22.38 ℃ | 100 % | 1007.17 hPa |
| 2026-08-28 23:23:44 | 22.44 ℃ | 100 % | 1007.13 hPa |
| 2026-08-28 23:13:44 | 22.4 ℃ | 100 % | 1007.16 hPa |
| 2026-08-28 23:03:44 | 22.3 ℃ | 100 % | 1007.1 hPa |
| 2026-08-28 22:53:44 | 22.2 ℃ | 100 % | 1007.02 hPa |
| 2026-08-28 22:43:44 | 22.17 ℃ | 100 % | 1007.04 hPa |
| 2026-08-28 22:33:44 | 22.58 ℃ | 100 % | 1006.94 hPa |
| 2026-08-28 22:23:44 | 22.74 ℃ | 100 % | 1006.84 hPa |
| 2026-08-28 22:13:44 | 22.9 ℃ | 100 % | 1006.82 hPa |
| 2026-08-28 22:03:44 | 23.07 ℃ | 100 % | 1006.82 hPa |
| 2026-08-28 21:53:44 | 23.33 ℃ | 100 % | 1006.77 hPa |
| 2026-08-28 21:43:44 | 23.09 ℃ | 100 % | 1006.73 hPa |
| 2026-08-28 21:33:45 | 23.17 ℃ | 100 % | 1006.73 hPa |
| 2026-08-28 21:23:44 | 23.1 ℃ | 100 % | 1006.69 hPa |
| 2026-08-28 21:13:44 | 23.36 ℃ | 100 % | 1006.62 hPa |
| 2026-08-28 21:03:44 | 23.22 ℃ | 100 % | 1006.52 hPa |
| 2026-08-28 20:53:44 | 23.29 ℃ | 100 % | 1006.31 hPa |
| 2026-08-28 20:43:44 | 23.28 ℃ | 100 % | 1006.24 hPa |
| 2026-08-28 20:33:44 | 23.59 ℃ | 100 % | 1006.14 hPa |
| 2026-08-28 20:23:44 | 24.12 ℃ | 100 % | 1005.93 hPa |
| 2026-08-28 20:13:44 | 24.45 ℃ | 100 % | 1005.72 hPa |
| 2026-08-28 20:03:44 | 24.44 ℃ | 100 % | 1005.65 hPa |
| 2026-08-28 19:53:44 | 24.2 ℃ | 100 % | 1005.73 hPa |
| 2026-08-28 19:43:44 | 23.78 ℃ | 100 % | 1005.95 hPa |
| 2026-08-28 19:33:44 | 23.37 ℃ | 100 % | 1006.17 hPa |
| 2026-08-28 19:23:44 | 22.99 ℃ | 100 % | 1006.4 hPa |
| 2026-08-28 19:13:44 | 23.28 ℃ | 100 % | 1006.64 hPa |
| 2026-08-28 19:03:44 | 23.53 ℃ | 100 % | 1006.74 hPa |
| 2026-08-28 18:53:44 | 23.15 ℃ | 100 % | 1006.55 hPa |
| 2026-08-28 18:43:44 | 23.24 ℃ | 100 % | 1006.38 hPa |
| 2026-08-28 18:33:44 | 24.31 ℃ | 100 % | 1006.17 hPa |
| 2026-08-28 18:23:44 | 25.56 ℃ | 100 % | 1006.03 hPa |
| 2026-08-28 18:13:44 | 25.82 ℃ | 100 % | 1005.85 hPa |
| 2026-08-28 18:03:44 | 25.94 ℃ | 100 % | 1005.77 hPa |
| 2026-08-28 17:53:44 | 26.68 ℃ | 100 % | 1005.71 hPa |
| 2026-08-28 17:43:45 | 26.61 ℃ | 100 % | 1005.75 hPa |
| 2026-08-28 17:33:44 | 26.68 ℃ | 100 % | 1005.77 hPa |
| 2026-08-28 17:23:44 | 26.33 ℃ | 100 % | 1005.78 hPa |
| 2026-08-28 17:13:44 | 26.15 ℃ | 100 % | 1005.83 hPa |
| 2026-08-28 17:03:44 | 26.44 ℃ | 100 % | 1005.95 hPa |
| 2026-08-28 16:53:45 | 27.55 ℃ | 100 % | 1006.19 hPa |
| 2026-08-28 16:43:44 | 27.44 ℃ | 100 % | 1006.28 hPa |
| 2026-08-28 16:33:46 | 27.17 ℃ | 100 % | 1006.38 hPa |
| 2026-08-28 16:23:44 | 26.78 ℃ | 100 % | 1006.49 hPa |
| 2026-08-28 16:13:45 | 26.59 ℃ | 100 % | 1006.63 hPa |
| 2026-08-28 16:03:44 | 26.26 ℃ | 100 % | 1006.85 hPa |
| 2026-08-28 15:53:44 | 26.16 ℃ | 100 % | 1006.87 hPa |
| 2026-08-28 15:43:44 | 26.63 ℃ | 100 % | 1006.83 hPa |
| 2026-08-28 15:33:44 | 26.84 ℃ | 100 % | 1006.72 hPa |
| 2026-08-28 15:23:44 | 26.93 ℃ | 100 % | 1006.74 hPa |
| 2026-08-28 15:13:44 | 27.05 ℃ | 100 % | 1006.68 hPa |
| 2026-08-28 15:03:45 | 27.26 ℃ | 100 % | 1006.76 hPa |
| 2026-08-28 14:53:44 | 26.78 ℃ | 100 % | 1006.76 hPa |
| 2026-08-28 14:43:44 | 26.75 ℃ | 100 % | 1006.58 hPa |
| 2026-08-28 14:33:45 | 26.51 ℃ | 100 % | 1006.31 hPa |
| 2026-08-28 14:23:44 | 26.14 ℃ | 100 % | 1006.14 hPa |
| 2026-08-28 14:13:45 | 25.66 ℃ | 100 % | 1006.18 hPa |
| 2026-08-28 14:03:45 | 25.68 ℃ | 100 % | 1006.22 hPa |
| 2026-08-28 13:53:45 | 26.4 ℃ | 100 % | 1006.17 hPa |
| 2026-08-28 13:43:45 | 26.69 ℃ | 100 % | 1006.15 hPa |
| 2026-08-28 13:33:44 | 26.59 ℃ | 100 % | 1006.31 hPa |
| 2026-08-28 13:23:44 | 26.46 ℃ | 100 % | 1006.3 hPa |
| 2026-08-28 13:13:45 | 26.17 ℃ | 100 % | 1006.53 hPa |
| 2026-08-28 13:03:45 | 25.73 ℃ | 100 % | 1006.71 hPa |
| 2026-08-28 12:53:44 | 25.49 ℃ | 100 % | 1006.6 hPa |
| 2026-08-28 12:43:44 | 25.19 ℃ | 100 % | 1006.6 hPa |
| 2026-08-28 12:33:45 | 25.04 ℃ | 100 % | 1006.8 hPa |
| 2026-08-28 12:23:45 | 24.92 ℃ | 100 % | 1006.89 hPa |
| 2026-08-28 12:13:45 | 24.98 ℃ | 100 % | 1007.06 hPa |
| 2026-08-28 12:03:45 | 24.49 ℃ | 100 % | 1007.28 hPa |
| 2026-08-28 11:53:45 | 24.13 ℃ | 100 % | 1007.4 hPa |
| 2026-08-28 11:43:45 | 24.11 ℃ | 100 % | 1007.05 hPa |
| 2026-08-28 11:33:45 | 23.89 ℃ | 100 % | 1006.96 hPa |
| 2026-08-28 11:23:45 | 23.3 ℃ | 100 % | 1006.87 hPa |
| 2026-08-28 11:13:45 | 23.18 ℃ | 100 % | 1006.91 hPa |
| 2026-08-28 11:03:45 | 22.86 ℃ | 100 % | 1007.19 hPa |
| 2026-08-28 10:53:45 | 22.95 ℃ | 100 % | 1007.46 hPa |
| 2026-08-28 10:43:45 | 22.97 ℃ | 100 % | 1007.37 hPa |
| 2026-08-28 10:33:45 | 22.92 ℃ | 100 % | 1007.28 hPa |
| 2026-08-28 10:23:45 | 22.85 ℃ | 100 % | 1007.33 hPa |
| 2026-08-28 10:13:45 | 22.43 ℃ | 100 % | 1007.31 hPa |
| 2026-08-28 10:03:45 | 22.23 ℃ | 100 % | 1007.3 hPa |
| 2026-08-28 09:53:45 | 22 ℃ | 100 % | 1007.34 hPa |
| 2026-08-28 09:43:45 | 22.01 ℃ | 100 % | 1007.37 hPa |
| 2026-08-28 09:33:45 | 21.44 ℃ | 100 % | 1007.21 hPa |
| 2026-08-28 09:23:45 | 21.14 ℃ | 100 % | 1007.24 hPa |
| 2026-08-28 09:13:45 | 21.18 ℃ | 100 % | 1006.94 hPa |
| 2026-08-28 09:03:45 | 21.1 ℃ | 100 % | 1006.76 hPa |
| 2026-08-28 08:53:45 | 20.66 ℃ | 100 % | 1006.34 hPa |
| 2026-08-28 08:43:45 | 20.96 ℃ | 100 % | 1006.48 hPa |
| 2026-08-28 08:33:45 | 20.41 ℃ | 100 % | 1006.46 hPa |
| 2026-08-28 08:23:45 | 20.09 ℃ | 100 % | 1006.51 hPa |
| 2026-08-28 08:13:45 | 19.81 ℃ | 100 % | 1006.71 hPa |
| 2026-08-28 08:03:45 | 20.23 ℃ | 100 % | 1007.01 hPa |
| 2026-08-28 07:53:45 | 20.54 ℃ | 100 % | 1007.23 hPa |
| 2026-08-28 07:43:45 | 20.4 ℃ | 100 % | 1007.34 hPa |
| 2026-08-28 07:33:45 | 20.05 ℃ | 100 % | 1007.49 hPa |
| 2026-08-28 07:23:45 | 19.71 ℃ | 100 % | 1007.59 hPa |
| 2026-08-28 07:13:45 | 19.57 ℃ | 100 % | 1007.7 hPa |
| 2026-08-28 07:03:45 | 19.23 ℃ | 100 % | 1007.91 hPa |
| 2026-08-28 06:53:45 | 19.28 ℃ | 100 % | 1008.48 hPa |
| 2026-08-28 06:43:45 | 19.75 ℃ | 100 % | 1008.95 hPa |
| 2026-08-28 06:33:45 | 20.07 ℃ | 100 % | 1009.46 hPa |
| 2026-08-28 06:23:45 | 20.89 ℃ | 100 % | 1009.77 hPa |
| 2026-08-28 06:13:45 | 21.37 ℃ | 100 % | 1010.03 hPa |
| 2026-08-28 06:03:45 | 21.66 ℃ | 100 % | 1010.27 hPa |
| 2026-08-28 05:53:46 | 21.78 ℃ | 100 % | 1010.37 hPa |
| 2026-08-28 05:43:45 | 22.21 ℃ | 100 % | 1010.35 hPa |
| 2026-08-28 05:33:45 | 23.22 ℃ | 100 % | 1010.1 hPa |
| 2026-08-28 05:23:46 | 23.47 ℃ | 100 % | 1009.63 hPa |
| 2026-08-28 05:13:45 | 23.36 ℃ | 100 % | 1009.4 hPa |
| 2026-08-28 05:03:46 | 23.08 ℃ | 100 % | 1009.15 hPa |
| 2026-08-28 04:53:45 | 23.1 ℃ | 100 % | 1009.09 hPa |
| 2026-08-28 04:43:45 | 23.18 ℃ | 100 % | 1009.17 hPa |
| 2026-08-28 04:33:46 | 23.31 ℃ | 100 % | 1009.31 hPa |
| 2026-08-28 04:23:45 | 23.32 ℃ | 100 % | 1009.56 hPa |
| 2026-08-28 04:13:45 | 23.3 ℃ | 100 % | 1009.79 hPa |
| 2026-08-28 04:03:45 | 23.5 ℃ | 100 % | 1009.81 hPa |
| 2026-08-28 03:53:45 | 23.49 ℃ | 100 % | 1009.84 hPa |
| 2026-08-28 03:43:47 | 23.56 ℃ | 100 % | 1009.85 hPa |
| 2026-08-28 03:33:45 | 23.48 ℃ | 100 % | 1010 hPa |
| 2026-08-28 03:23:45 | 23.56 ℃ | 100 % | 1010.25 hPa |
| 2026-08-28 03:13:46 | 23.77 ℃ | 100 % | 1010.46 hPa |
| 2026-08-28 03:03:45 | 23.85 ℃ | 100 % | 1010.65 hPa |
| 2026-08-28 02:53:46 | 23.98 ℃ | 100 % | 1010.79 hPa |
| 2026-08-28 02:43:45 | 23.88 ℃ | 100 % | 1010.94 hPa |
| 2026-08-28 02:33:45 | 24.15 ℃ | 100 % | 1011.13 hPa |
| 2026-08-28 02:23:45 | 24.18 ℃ | 100 % | 1011.18 hPa |
| 2026-08-28 02:13:46 | 24.02 ℃ | 100 % | 1011.25 hPa |
| 2026-08-28 02:03:45 | 23.92 ℃ | 100 % | 1011.4 hPa |
| 2026-08-28 01:53:45 | 24.07 ℃ | 100 % | 1011.55 hPa |
| 2026-08-28 01:43:45 | 23.9 ℃ | 100 % | 1011.64 hPa |
| 2026-08-28 01:33:46 | 24.17 ℃ | 100 % | 1011.71 hPa |
| 2026-08-28 01:23:45 | 24.19 ℃ | 100 % | 1011.85 hPa |
| 2026-08-28 01:13:46 | 24.36 ℃ | 100 % | 1012.03 hPa |
| 2026-08-28 01:03:46 | 24.47 ℃ | 100 % | 1012.19 hPa |
| 2026-08-28 00:53:46 | 24.45 ℃ | 100 % | 1012.23 hPa |
| 2026-08-28 00:43:45 | 24.45 ℃ | 100 % | 1012.32 hPa |
| 2026-08-28 00:33:46 | 24.79 ℃ | 100 % | 1012.48 hPa |
| 2026-08-28 00:23:46 | 24.82 ℃ | 100 % | 1012.59 hPa |
| 2026-08-28 00:13:46 | 24.82 ℃ | 100 % | 1012.81 hPa |
| 2026-08-28 00:03:46 | 24.96 ℃ | 100 % | 1013 hPa |
| 2026-08-27 23:53:46 | 25.24 ℃ | 100 % | 1013.22 hPa |
| 2026-08-27 23:43:46 | 25.32 ℃ | 100 % | 1013.31 hPa |
| 2026-08-27 23:33:46 | 24.98 ℃ | 100 % | 1013.35 hPa |
| 2026-08-27 23:23:46 | 25.15 ℃ | 100 % | 1013.47 hPa |
| 2026-08-27 23:13:46 | 24.92 ℃ | 100 % | 1013.52 hPa |
| 2026-08-27 23:03:46 | 24.86 ℃ | 100 % | 1013.55 hPa |
| 2026-08-27 22:53:46 | 24.78 ℃ | 100 % | 1013.56 hPa |
| 2026-08-27 22:43:46 | 24.9 ℃ | 100 % | 1013.58 hPa |
| 2026-08-27 22:33:46 | 24.95 ℃ | 100 % | 1013.55 hPa |
| 2026-08-27 22:23:46 | 24.72 ℃ | 100 % | 1013.49 hPa |
| 2026-08-27 22:13:46 | 24.6 ℃ | 100 % | 1013.46 hPa |
| 2026-08-27 22:03:46 | 24.54 ℃ | 100 % | 1013.53 hPa |
| 2026-08-27 21:53:46 | 24.32 ℃ | 100 % | 1013.55 hPa |
| 2026-08-27 21:43:46 | 24.14 ℃ | 100 % | 1013.62 hPa |
| 2026-08-27 21:33:46 | 24.09 ℃ | 100 % | 1013.72 hPa |
| 2026-08-27 21:23:46 | 24.29 ℃ | 100 % | 1013.82 hPa |
| 2026-08-27 21:13:46 | 24.45 ℃ | 100 % | 1013.83 hPa |
| 2026-08-27 21:03:46 | 24.73 ℃ | 100 % | 1013.79 hPa |
| 2026-08-27 20:53:46 | 24.76 ℃ | 100 % | 1013.83 hPa |
| 2026-08-27 20:43:46 | 24.9 ℃ | 100 % | 1013.86 hPa |
| 2026-08-27 20:33:46 | 25 ℃ | 100 % | 1013.92 hPa |
| 2026-08-27 20:23:46 | 24.95 ℃ | 100 % | 1014.03 hPa |
| 2026-08-27 20:13:46 | 24.99 ℃ | 100 % | 1014.21 hPa |
| 2026-08-27 20:03:46 | 25.14 ℃ | 100 % | 1014.36 hPa |
| 2026-08-27 19:53:47 | 25.08 ℃ | 100 % | 1014.4 hPa |
| 2026-08-27 19:43:46 | 24.96 ℃ | 100 % | 1014.47 hPa |
| 2026-08-27 19:33:46 | 25.16 ℃ | 100 % | 1014.48 hPa |
| 2026-08-27 19:23:46 | 25.5 ℃ | 100 % | 1014.43 hPa |
| 2026-08-27 19:13:46 | 25.59 ℃ | 100 % | 1014.49 hPa |
| 2026-08-27 19:03:46 | 25.91 ℃ | 100 % | 1014.55 hPa |
| 2026-08-27 18:53:46 | 26.21 ℃ | 100 % | 1014.66 hPa |
| 2026-08-27 18:43:46 | 26.09 ℃ | 100 % | 1014.69 hPa |
| 2026-08-27 18:33:46 | 26.1 ℃ | 100 % | 1014.71 hPa |
| 2026-08-27 18:23:46 | 26.25 ℃ | 100 % | 1014.76 hPa |
| 2026-08-27 18:13:46 | 26.49 ℃ | 100 % | 1014.89 hPa |
| 2026-08-27 18:03:46 | 26.5 ℃ | 100 % | 1015.03 hPa |
| 2026-08-27 17:53:46 | 26.77 ℃ | 100 % | 1015.12 hPa |
| 2026-08-27 17:43:46 | 26.76 ℃ | 99.99 % | 1015.22 hPa |
| 2026-08-27 17:33:46 | 26.8 ℃ | 99.99 % | 1015.27 hPa |
| 2026-08-27 17:23:46 | 27.12 ℃ | 99.98 % | 1015.31 hPa |
| 2026-08-27 17:13:46 | 27.12 ℃ | 99.96 % | 1015.35 hPa |
| 2026-08-27 17:03:46 | 27.07 ℃ | 99.92 % | 1015.38 hPa |
| 2026-08-27 16:53:46 | 27.37 ℃ | 99.84 % | 1015.49 hPa |
| 2026-08-27 16:43:47 | 27.09 ℃ | 99.68 % | 1015.6 hPa |
| 2026-08-27 16:33:47 | 27.15 ℃ | 99.36 % | 1015.6 hPa |
| 2026-08-27 16:23:46 | 26.83 ℃ | 98.71 % | 1015.62 hPa |
| 2026-08-27 16:13:46 | 27.09 ℃ | 97.43 % | 1015.6 hPa |
| 2026-08-27 16:03:46 | 27.34 ℃ | 94.86 % | 1015.52 hPa |
| 2026-08-27 15:53:46 | 27.59 ℃ | 89.72 % | 1015.61 hPa |
| 2026-08-27 15:43:47 | 27.38 ℃ | 89.87 % | 1015.86 hPa |
| 2026-08-27 15:33:46 | 27.39 ℃ | 90.8 % | 1016.07 hPa |
| 2026-08-27 15:23:46 | 27.49 ℃ | 90.5 % | 1016.23 hPa |
| 2026-08-27 15:13:46 | 27.3 ℃ | 92.08 % | 1016.37 hPa |
| 2026-08-27 15:03:47 | 26.85 ℃ | 93.51 % | 1016.5 hPa |
| 2026-08-27 14:53:46 | 26.88 ℃ | 94.57 % | 1016.55 hPa |
| 2026-08-27 14:43:46 | 26.87 ℃ | 95.22 % | 1016.56 hPa |
| 2026-08-27 14:33:46 | 26.79 ℃ | 96.18 % | 1016.68 hPa |
| 2026-08-27 14:23:47 | 26.45 ℃ | 97.69 % | 1016.84 hPa |
| 2026-08-27 14:13:47 | 26.46 ℃ | 98.53 % | 1016.87 hPa |
| 2026-08-27 14:03:46 | 26.31 ℃ | 99.22 % | 1016.93 hPa |
| 2026-08-27 13:53:46 | 26.25 ℃ | 99.76 % | 1016.94 hPa |
| 2026-08-27 13:43:47 | 26.08 ℃ | 99.73 % | 1016.99 hPa |
| 2026-08-27 13:33:46 | 25.87 ℃ | 99.47 % | 1017.2 hPa |
| 2026-08-27 13:23:46 | 25.78 ℃ | 98.94 % | 1017.36 hPa |
| 2026-08-27 13:13:46 | 25.88 ℃ | 97.88 % | 1017.47 hPa |
| 2026-08-27 13:03:47 | 25.77 ℃ | 96.39 % | 1017.56 hPa |
| 2026-08-27 12:53:46 | 25.9 ℃ | 94.53 % | 1017.62 hPa |
| 2026-08-27 12:43:46 | 25.74 ℃ | 94.13 % | 1017.79 hPa |
| 2026-08-27 12:33:47 | 25.65 ℃ | 92.93 % | 1017.94 hPa |
| 2026-08-27 12:23:47 | 25.36 ℃ | 93.42 % | 1018.08 hPa |
| 2026-08-27 12:13:47 | 25.51 ℃ | 93.74 % | 1018.24 hPa |
| 2026-08-27 12:03:47 | 25.44 ℃ | 94.4 % | 1018.36 hPa |
| 2026-08-27 11:53:47 | 25.24 ℃ | 95.72 % | 1018.39 hPa |
| 2026-08-27 11:43:47 | 25.23 ℃ | 97.17 % | 1018.63 hPa |
| 2026-08-27 11:33:47 | 25.03 ℃ | 98.86 % | 1018.73 hPa |
| 2026-08-27 11:23:47 | 25.15 ℃ | 99.13 % | 1018.82 hPa |
| 2026-08-27 11:13:47 | 24.96 ℃ | 100 % | 1018.84 hPa |
| 2026-08-27 11:03:47 | 24.97 ℃ | 100 % | 1018.77 hPa |
| 2026-08-27 10:53:47 | 25 ℃ | 100 % | 1018.87 hPa |
| 2026-08-27 10:43:47 | 24.69 ℃ | 100 % | 1018.92 hPa |
| 2026-08-27 10:33:47 | 24.16 ℃ | 100 % | 1019.03 hPa |
| 2026-08-27 10:23:47 | 23.96 ℃ | 100 % | 1019.05 hPa |
| 2026-08-27 10:13:47 | 23.74 ℃ | 100 % | 1019.24 hPa |
| 2026-08-27 10:03:47 | 23.81 ℃ | 100 % | 1019.37 hPa |
| 2026-08-27 09:53:47 | 23.45 ℃ | 100 % | 1019.45 hPa |
| 2026-08-27 09:43:47 | 23.27 ℃ | 100 % | 1019.48 hPa |
| 2026-08-27 09:33:47 | 23.08 ℃ | 100 % | 1019.54 hPa |
| 2026-08-27 09:23:47 | 22.74 ℃ | 100 % | 1019.69 hPa |
| 2026-08-27 09:13:47 | 22.66 ℃ | 100 % | 1019.74 hPa |
| 2026-08-27 09:03:47 | 22.09 ℃ | 100 % | 1019.73 hPa |
| 2026-08-27 08:53:47 | 21.76 ℃ | 100 % | 1019.77 hPa |
| 2026-08-27 08:43:47 | 21.62 ℃ | 100 % | 1019.8 hPa |
| 2026-08-27 08:33:47 | 21.35 ℃ | 100 % | 1019.8 hPa |
| 2026-08-27 08:23:47 | 21.09 ℃ | 100 % | 1019.76 hPa |
| 2026-08-27 08:13:47 | 20.66 ℃ | 100 % | 1019.77 hPa |
| 2026-08-27 08:03:47 | 20.8 ℃ | 100 % | 1019.84 hPa |
| 2026-08-27 07:53:47 | 20.85 ℃ | 100 % | 1019.89 hPa |
| 2026-08-27 07:43:47 | 20.5 ℃ | 100 % | 1019.97 hPa |
| 2026-08-27 07:33:47 | 19.84 ℃ | 100 % | 1019.92 hPa |
| 2026-08-27 07:23:47 | 19.84 ℃ | 100 % | 1019.94 hPa |
| 2026-08-27 07:13:47 | 19.52 ℃ | 100 % | 1019.97 hPa |
| 2026-08-27 07:03:47 | 19.51 ℃ | 100 % | 1019.98 hPa |
| 2026-08-27 06:53:47 | 19.29 ℃ | 100 % | 1020.04 hPa |
| 2026-08-27 06:43:47 | 19.22 ℃ | 100 % | 1020.07 hPa |
| 2026-08-27 06:33:47 | 19.05 ℃ | 100 % | 1020.07 hPa |
| 2026-08-27 06:23:47 | 18.98 ℃ | 100 % | 1020.08 hPa |
| 2026-08-27 06:13:47 | 18.92 ℃ | 100 % | 1020.14 hPa |
| 2026-08-27 06:03:48 | 18.83 ℃ | 100 % | 1020.23 hPa |
| 2026-08-27 05:53:47 | 19.03 ℃ | 100 % | 1020.29 hPa |
| 2026-08-27 05:43:47 | 19.18 ℃ | 100 % | 1020.3 hPa |
| 2026-08-27 05:33:47 | 19.13 ℃ | 100 % | 1020.38 hPa |
| 2026-08-27 05:23:47 | 19.23 ℃ | 100 % | 1020.42 hPa |
| 2026-08-27 05:13:47 | 19.39 ℃ | 100 % | 1020.45 hPa |
| 2026-08-27 05:03:48 | 19.34 ℃ | 100 % | 1020.52 hPa |
| 2026-08-27 04:53:47 | 19.31 ℃ | 100 % | 1020.66 hPa |
| 2026-08-27 04:43:47 | 19.2 ℃ | 100 % | 1020.71 hPa |
| 2026-08-27 04:33:47 | 19.53 ℃ | 100 % | 1020.74 hPa |
| 2026-08-27 04:23:47 | 19.56 ℃ | 100 % | 1020.78 hPa |
| 2026-08-27 04:13:47 | 19.5 ℃ | 100 % | 1020.86 hPa |
| 2026-08-27 04:03:47 | 19.44 ℃ | 100 % | 1020.89 hPa |
| 2026-08-27 03:53:47 | 19.31 ℃ | 100 % | 1020.92 hPa |
| 2026-08-27 03:43:47 | 19.42 ℃ | 100 % | 1020.95 hPa |
| 2026-08-27 03:33:47 | 19.46 ℃ | 100 % | 1020.96 hPa |
| 2026-08-27 03:23:48 | 19.57 ℃ | 100 % | 1021 hPa |
| 2026-08-27 03:13:48 | 19.62 ℃ | 100 % | 1021.03 hPa |
| 2026-08-27 03:03:48 | 19.55 ℃ | 100 % | 1021.07 hPa |
| 2026-08-27 02:53:48 | 19.52 ℃ | 100 % | 1021.1 hPa |
| 2026-08-27 02:43:48 | 19.53 ℃ | 100 % | 1021.12 hPa |
| 2026-08-27 02:33:47 | 19.72 ℃ | 100 % | 1021.13 hPa |
| 2026-08-27 02:23:47 | 19.62 ℃ | 100 % | 1021.14 hPa |
| 2026-08-27 02:13:48 | 19.94 ℃ | 100 % | 1021.19 hPa |
| 2026-08-27 02:03:48 | 19.95 ℃ | 100 % | 1021.26 hPa |
| 2026-08-27 01:53:48 | 20.02 ℃ | 100 % | 1021.35 hPa |
| 2026-08-27 01:43:48 | 20.04 ℃ | 100 % | 1021.43 hPa |
| 2026-08-27 01:33:49 | 20.18 ℃ | 100 % | 1021.49 hPa |
| 2026-08-27 01:23:47 | 20.31 ℃ | 100 % | 1021.53 hPa |
| 2026-08-27 01:13:48 | 20.47 ℃ | 100 % | 1021.6 hPa |
| 2026-08-27 01:03:48 | 20.43 ℃ | 100 % | 1021.61 hPa |
| 2026-08-27 00:53:48 | 20.5 ℃ | 100 % | 1021.62 hPa |
| 2026-08-27 00:43:48 | 20.55 ℃ | 100 % | 1021.63 hPa |
| 2026-08-27 00:33:48 | 20.85 ℃ | 100 % | 1021.58 hPa |
| 2026-08-27 00:23:48 | 20.7 ℃ | 100 % | 1021.56 hPa |
| 2026-08-27 00:13:48 | 20.72 ℃ | 100 % | 1021.57 hPa |
| 2026-08-27 00:03:48 | 20.61 ℃ | 100 % | 1021.53 hPa |
| 2026-08-26 23:53:48 | 20.74 ℃ | 100 % | 1021.5 hPa |
| 2026-08-26 23:43:48 | 20.64 ℃ | 100 % | 1021.54 hPa |
| 2026-08-26 23:33:48 | 20.75 ℃ | 100 % | 1021.52 hPa |
| 2026-08-26 23:23:48 | 20.88 ℃ | 100 % | 1021.45 hPa |
| 2026-08-26 23:13:48 | 21.14 ℃ | 100 % | 1021.41 hPa |
| 2026-08-26 23:03:48 | 21.25 ℃ | 100 % | 1021.36 hPa |
| 2026-08-26 22:53:48 | 21.2 ℃ | 100 % | 1021.36 hPa |
| 2026-08-26 22:43:48 | 21.38 ℃ | 100 % | 1021.34 hPa |
| 2026-08-26 22:33:48 | 21.4 ℃ | 100 % | 1021.32 hPa |
| 2026-08-26 22:23:48 | 21.52 ℃ | 100 % | 1021.29 hPa |
| 2026-08-26 22:13:48 | 21.34 ℃ | 100 % | 1021.27 hPa |
| 2026-08-26 22:03:48 | 21.56 ℃ | 100 % | 1021.22 hPa |
| 2026-08-26 21:53:48 | 21.76 ℃ | 100 % | 1021.24 hPa |
| 2026-08-26 21:43:48 | 21.75 ℃ | 100 % | 1021.21 hPa |
| 2026-08-26 21:33:48 | 21.93 ℃ | 100 % | 1021.2 hPa |
| 2026-08-26 21:23:48 | 21.85 ℃ | 100 % | 1021.22 hPa |
| 2026-08-26 21:13:49 | 22.04 ℃ | 100 % | 1021.16 hPa |
| 2026-08-26 21:03:48 | 22.19 ℃ | 100 % | 1021.12 hPa |
| 2026-08-26 20:53:48 | 22.02 ℃ | 100 % | 1021.07 hPa |
| 2026-08-26 20:43:49 | 22.02 ℃ | 100 % | 1021.01 hPa |
| 2026-08-26 20:33:48 | 22.46 ℃ | 100 % | 1020.87 hPa |
| 2026-08-26 20:23:48 | 22.55 ℃ | 100 % | 1020.79 hPa |
| 2026-08-26 20:13:48 | 22.6 ℃ | 100 % | 1020.74 hPa |
| 2026-08-26 20:03:48 | 22.89 ℃ | 100 % | 1020.71 hPa |
| 2026-08-26 19:53:48 | 22.89 ℃ | 100 % | 1020.72 hPa |
| 2026-08-26 19:43:48 | 22.96 ℃ | 100 % | 1020.69 hPa |
| 2026-08-26 19:33:48 | 23.17 ℃ | 100 % | 1020.6 hPa |
| 2026-08-26 19:23:48 | 23.39 ℃ | 100 % | 1020.55 hPa |
| 2026-08-26 19:13:48 | 23.59 ℃ | 100 % | 1020.55 hPa |
| 2026-08-26 19:03:48 | 23.75 ℃ | 100 % | 1020.54 hPa |
| 2026-08-26 18:53:48 | 23.93 ℃ | 100 % | 1020.6 hPa |
| 2026-08-26 18:43:48 | 23.97 ℃ | 100 % | 1020.67 hPa |
| 2026-08-26 18:33:48 | 24.07 ℃ | 100 % | 1020.69 hPa |
| 2026-08-26 18:23:50 | 24.28 ℃ | 100 % | 1020.68 hPa |
| 2026-08-26 18:13:48 | 24.35 ℃ | 100 % | 1020.76 hPa |
| 2026-08-26 18:03:48 | 24.39 ℃ | 100 % | 1020.78 hPa |
| 2026-08-26 17:53:48 | 24.44 ℃ | 100 % | 1020.87 hPa |
| 2026-08-26 17:43:48 | 24.59 ℃ | 100 % | 1020.86 hPa |
| 2026-08-26 17:33:48 | 24.71 ℃ | 100 % | 1020.88 hPa |
| 2026-08-26 17:23:48 | 24.56 ℃ | 100 % | 1020.97 hPa |
| 2026-08-26 17:13:48 | 24.81 ℃ | 100 % | 1021.02 hPa |
| 2026-08-26 17:03:48 | 24.61 ℃ | 100 % | 1021.13 hPa |
| 2026-08-26 16:53:48 | 25.02 ℃ | 100 % | 1021.16 hPa |
| 2026-08-26 16:43:48 | 25.04 ℃ | 100 % | 1021.24 hPa |
| 2026-08-26 16:33:48 | 25 ℃ | 100 % | 1021.33 hPa |
| 2026-08-26 16:23:48 | 24.57 ℃ | 100 % | 1021.33 hPa |
| 2026-08-26 16:13:48 | 24.9 ℃ | 99.99 % | 1021.4 hPa |
| 2026-08-26 16:03:48 | 24.84 ℃ | 99.98 % | 1021.41 hPa |
| 2026-08-26 15:53:48 | 25.06 ℃ | 99.97 % | 1021.41 hPa |
| 2026-08-26 15:43:48 | 25.11 ℃ | 99.94 % | 1021.45 hPa |
| 2026-08-26 15:33:48 | 25.14 ℃ | 99.88 % | 1021.43 hPa |
| 2026-08-26 15:23:49 | 25.48 ℃ | 99.75 % | 1021.43 hPa |
| 2026-08-26 15:13:48 | 25.57 ℃ | 99.51 % | 1021.42 hPa |
| 2026-08-26 15:03:48 | 25.46 ℃ | 99.02 % | 1021.44 hPa |
| 2026-08-26 14:53:49 | 25.87 ℃ | 98.03 % | 1021.45 hPa |
| 2026-08-26 14:43:48 | 25.72 ℃ | 98.33 % | 1021.45 hPa |
| 2026-08-26 14:33:49 | 25.67 ℃ | 96.8 % | 1021.45 hPa |
| 2026-08-26 14:23:49 | 25.65 ℃ | 95.42 % | 1021.47 hPa |
| 2026-08-26 14:13:48 | 25.71 ℃ | 93.46 % | 1021.52 hPa |
| 2026-08-26 14:03:48 | 25.77 ℃ | 88.92 % | 1021.55 hPa |
| 2026-08-26 13:53:48 | 26.22 ℃ | 81.52 % | 1021.56 hPa |
| 2026-08-26 13:43:49 | 26.18 ℃ | 82.04 % | 1021.63 hPa |
| 2026-08-26 13:33:48 | 26.11 ℃ | 82.33 % | 1021.68 hPa |
| 2026-08-26 13:23:48 | 26.06 ℃ | 82.2 % | 1021.72 hPa |
| 2026-08-26 13:13:49 | 25.89 ℃ | 81.89 % | 1021.67 hPa |
| 2026-08-26 13:03:49 | 25.98 ℃ | 81.39 % | 1021.75 hPa |
| 2026-08-26 12:53:49 | 25.62 ℃ | 82.45 % | 1021.78 hPa |
| 2026-08-26 12:43:50 | 25.78 ℃ | 82.32 % | 1021.82 hPa |
| 2026-08-26 12:33:49 | 25.74 ℃ | 83.55 % | 1021.86 hPa |
| 2026-08-26 12:23:49 | 25.74 ℃ | 86.11 % | 1021.87 hPa |
| 2026-08-26 12:13:49 | 25.52 ℃ | 88.41 % | 1021.94 hPa |
| 2026-08-26 12:03:49 | 25.26 ℃ | 91.37 % | 1021.98 hPa |
| 2026-08-26 11:53:49 | 25.12 ℃ | 94.61 % | 1022.03 hPa |
| 2026-08-26 11:43:49 | 25.23 ℃ | 98.04 % | 1022.08 hPa |
| 2026-08-26 11:33:49 | 25.13 ℃ | 100 % | 1022.1 hPa |
| 2026-08-26 11:23:49 | 24.55 ℃ | 100 % | 1022.18 hPa |
| 2026-08-26 11:13:49 | 24.09 ℃ | 100 % | 1022.17 hPa |
| 2026-08-26 11:03:49 | 24.29 ℃ | 100 % | 1022.17 hPa |
| 2026-08-26 10:53:49 | 23.75 ℃ | 100 % | 1022.19 hPa |
| 2026-08-26 10:43:49 | 24.15 ℃ | 100 % | 1022.15 hPa |
| 2026-08-26 10:33:49 | 24.09 ℃ | 100 % | 1022.15 hPa |
| 2026-08-26 10:23:49 | 23.83 ℃ | 100 % | 1022.14 hPa |
| 2026-08-26 10:13:49 | 23.15 ℃ | 100 % | 1022.1 hPa |
| 2026-08-26 10:03:49 | 22.61 ℃ | 100 % | 1022.09 hPa |
| 2026-08-26 09:53:49 | 22.71 ℃ | 100 % | 1022.04 hPa |
| 2026-08-26 09:43:49 | 22.68 ℃ | 100 % | 1021.95 hPa |
| 2026-08-26 09:33:49 | 22.1 ℃ | 100 % | 1021.88 hPa |
| 2026-08-26 09:23:49 | 22.29 ℃ | 100 % | 1021.84 hPa |
| 2026-08-26 09:13:49 | 22.11 ℃ | 100 % | 1021.85 hPa |
| 2026-08-26 09:03:49 | 22.08 ℃ | 100 % | 1021.81 hPa |
| 2026-08-26 08:53:49 | 21.85 ℃ | 100 % | 1021.78 hPa |
| 2026-08-26 08:43:49 | 22.26 ℃ | 100 % | 1021.74 hPa |
| 2026-08-26 08:33:49 | 22.02 ℃ | 100 % | 1021.68 hPa |
| 2026-08-26 08:23:49 | 21.55 ℃ | 100 % | 1021.68 hPa |
| 2026-08-26 08:13:49 | 21.4 ℃ | 100 % | 1021.69 hPa |
| 2026-08-26 08:03:50 | 21.25 ℃ | 100 % | 1021.69 hPa |
| 2026-08-26 07:53:50 | 21.02 ℃ | 100 % | 1021.65 hPa |
| 2026-08-26 07:43:49 | 20.38 ℃ | 100 % | 1021.6 hPa |
| 2026-08-26 07:33:49 | 20.4 ℃ | 100 % | 1021.54 hPa |
| 2026-08-26 07:23:50 | 20.2 ℃ | 100 % | 1021.52 hPa |
| 2026-08-26 07:13:49 | 20.37 ℃ | 100 % | 1021.47 hPa |
| Durchschnitt | 22.87 ℃ | 99.63 % | 1011.88 hPa |
Nachfolgend die Extremwerte seit Aufzeichnung.
| Bezeichnung | Wert | Zeitpunkt |
|---|---|---|
| Niedrigste Temperatur | 0.01 ℃ | 2021-01-30 04:41:27 |
| Höchste Temperatur | 39.16 ℃ | 2026-07-30 15:18:47 |
| Niedrigster Luftdruck | 973.38 hPa | 2021-12-01 19:37:42 |
| Höchster Luftdruck | 1089.17 hPa | 2026-03-11 22:53:40 |
| Niedrigste Luftfeuchtigkeit | 22.3 % | 2020-04-13 15:26:13 |
| Höchste Luftfeuchtigkeit | 100 % | 2026-09-02 07:03:35 |